ECMWFFLT1_sfc_temp_000.txt.gz
Temp
53 55 51 50 49 51 50 53 52 52 52 53 54 55 55 57 55 54 55 55 56 56 57 55 55 55 56 57 57 57 57 58 58 58 58 59 59 59 61 61 60 61 61 61 61 58 57 55 59 64 62 62 62 63 64 66 66 66 64 64 66 66 67
53 54 53 54 52 51 50 52 53 51 51 52 53 54 54 56 57 54 54 54 54 55 56 54 54 55 54 54 55 55 55 55 57 57 57 57 58 58 58 59 60 60 60 60 61 61 58 56 57 58 60 63 64 64 62 63 64 65 65 65 66 67 67
53 52 51 51 50 50 52 51 52 51 51 52 52 53 54 53 54 54 53 54 53 55 55 53 53 53 53 53 53 54 54 54 54 55 55 55 56 57 57 57 57 57 58 59 59 59 59 59 55 57 59 59 58 61 61 64 64 64 65 64 64 66 67
52 52 52 51 50 50 52 51 51 51 50 51 52 52 52 53 54 55 53 53 54 56 54 53 52 53 52 52 53 53 53 53 53 53 54 54 55 55 55 56 56 56 56 55 56 57 57 56 57 57 59 60 59 59 63 64 65 66 67 66 65 65 66
53 54 54 53 51 52 51 52 50 50 51 51 50 52 52 52 53 52 53 52 53 52 52 52 53 53 52 52 52 53 52 52 53 53 52 52 53 53 53 54 55 56 56 56 57 57 56 57 56 55 56 59 60 61 63 63 65 66 66 67 68 68 67
54 55 55 54 53 53 51 51 50 51 49 52 51 52 52 51 52 50 51 52 52 53 51 52 51 51 52 52 52 51 51 51 51 51 51 51 51 51 53 53 54 55 54 56 56 56 57 57 57 55 59 60 57 58 61 62 62 63 66 67 68 68 69
54 55 55 55 53 53 52 53 53 52 52 53 52 52 52 51 52 53 53 51 52 52 52 51 51 52 52 52 51 51 50 50 51 51 51 51 51 51 52 52 53 53 54 55 55 55 55 55 54 54 54 57 58 58 61 60 61 63 64 66 68 68 68
55 55 54 55 54 53 51 53 53 52 52 52 52 53 51 51 51 50 51 51 51 50 51 51 51 50 51 52 51 50 51 50 50 51 50 50 51 50 51 51 52 52 53 54 54 54 55 54 54 54 53 52 54 57 58 61 59 60 64 64 67 68 68
57 56 55 55 54 54 53 54 53 52 53 52 51 52 51 52 51 51 52 50 50 50 51 50 50 50 50 50 49 49 50 52 50 49 49 49 50 49 50 50 51 51 52 53 53 54 54 54 54 54 54 53 51 51 56 56 57 60 63 63 65 67 69
55 54 55 54 53 53 53 53 54 53 52 52 52 52 51 50 50 51 50 50 50 50 50 50 50 50 50 50 50 49 49 49 51 49 49 49 49 49 50 50 50 51 51 52 52 52 53 53 53 54 54 53 53 51 50 52 55 57 61 62 61 63 66
56 55 55 54 53 53 52 52 51 52 52 52 53 53 51 50 50 54 50 49 49 50 50 50 49 49 49 49 48 48 48 48 49 49 50 50 49 50 50 49 49 50 51 50 51 51 52 52 52 53 53 54 54 52 52 51 53 59 59 60 61 63 63
55 55 55 54 53 53 53 52 52 52 51 51 53 52 50 50 50 49 50 49 49 49 48 49 48 48 48 48 49 48 48 48 48 48 48 50 50 50 49 49 49 49 50 50 50 50 51 51 52 52 52 53 53 53 53 53 50 57 62 60 60 61 62
55 56 55 54 53 53 54 53 52 51 51 52 51 51 51 50 50 49 49 49 48 48 48 47 47 47 47 47 48 48 47 47 48 48 48 48 49 49 48 48 48 49 49 49 49 50 50 51 51 51 51 51 52 52 53 52 51 52 60 60 60 61 63
54 55 54 54 54 54 53 54 53 53 51 51 51 50 50 50 50 50 49 50 49 48 47 46 47 47 48 47 46 47 46 47 48 47 48 47 48 48 48 48 48 48 49 48 49 49 49 50 50 50 51 51 51 51 51 50 50 51 56 60 60 61 61
55 54 54 53 54 53 53 53 52 51 52 51 51 51 50 50 49 49 49 48 46 46 46 47 46 48 48 46 46 47 46 46 46 46 46 47 47 48 48 47 48 48 48 48 48 49 50 50 50 50 51 50 51 51 52 50 49 49 49 55 56 59 59
55 54 54 53 54 53 53 52 52 52 52 50 50 51 50 50 49 48 48 46 46 46 47 46 46 47 46 46 46 46 46 45 46 46 46 46 47 47 47 47 47 48 48 48 48 49 49 49 50 50 50 50 49 50 51 51 49 47 48 51 55 55 58
53 53 54 54 54 53 53 52 52 52 51 50 50 49 50 49 49 48 47 46 46 46 46 46 45 45 46 46 46 46 45 45 45 45 46 46 46 46 46 46 47 48 48 48 48 49 50 50 50 51 50 50 50 50 50 51 51 49 49 48 52 53 56
53 53 54 53 53 53 52 52 52 52 50 50 50 49 49 48 48 48 47 47 46 46 47 46 46 45 43 44 45 44 44 45 45 45 46 46 47 47 47 47 47 48 49 49 50 50 50 50 52 52 51 52 51 51 51 51 51 51 49 48 49 52 53
53 53 54 53 53 52 52 52 51 51 51 50 48 49 48 48 49 47 46 46 47 46 45 45 45 45 44 44 43 43 44 45 45 45 45 46 46 47 47 47 48 48 49 48 48 49 50 50 51 51 51 51 52 52 51 51 51 51 50 49 49 49 51
53 53 53 52 52 52 52 52 51 51 51 51 49 48 48 47 47 47 46 46 47 46 45 43 43 42 42 42 43 44 44 44 44 44 45 46 46 46 47 47 48 48 48 48 48 48 48 48 49 49 50 50 51 50 50 50 50 49 49 48 49 49 49
54 54 54 53 53 52 52 51 51 51 50 50 49 48 47 47 46 47 46 47 46 45 44 42 41 41 42 42 43 43 43 44 44 44 44 45 45 46 46 47 47 48 48 48 48 48 48 48 48 47 48 48 49 48 48 48 48 48 48 48 48 48 49
53 54 54 53 52 52 52 52 51 50 50 50 50 49 48 47 46 45 44 44 44 44 44 43 43 43 43 43 42 43 43 43 42 43 43 44 45 45 46 46 47 47 49 50 48 48 48 47 48 47 47 47 47 47 47 47 47 48 47 47 47 49 48
52 52 52 52 52 51 51 51 51 50 50 50 49 47 47 48 47 45 43 43 43 44 43 44 46 42 44 44 42 41 41 42 42 42 42 43 43 44 45 45 47 48 48 48 47 45 44 44 46 47 48 47 47 46 46 46 46 47 46 46 46 47 46
52 51 52 52 51 52 52 50 50 49 49 48 48 48 47 46 45 45 44 44 42 42 42 45 42 40 40 41 42 41 41 41 41 41 42 42 42 43 44 45 45 46 47 47 47 45 43 43 43 43 44 45 46 47 46 44 45 45 45 45 46 47 46
51 52 52 53 53 54 52 51 50 50 48 47 46 46 45 45 45 44 44 43 42 43 43 44 39 40 40 40 42 42 40 40 41 41 41 41 42 42 43 43 44 45 46 47 47 47 46 44 43 42 42 42 42 42 43 45 45 45 45 44 44 45 46
51 52 52 52 51 50 50 49 47 47 46 46 46 45 44 44 44 43 43 42 42 43 43 42 39 40 39 39 39 40 40 40 40 41 40 41 41 41 42 42 43 44 45 46 47 47 47 46 44 43 43 43 43 42 40 40 42 45 47 44 44 44 46
51 50 49 49 49 48 48 47 47 46 45 45 44 44 43 44 43 43 43 42 42 41 41 42 39 39 39 39 38 39 40 39 39 40 40 40 41 41 41 42 42 42 43 44 45 44 45 45 45 45 45 46 46 46 43 42 40 40 43 46 45 44 47
49 49 49 49 48 48 48 47 47 45 44 44 43 43 42 42 43 43 43 41 41 41 41 41 39 39 38 39 38 39 38 39 39 39 39 40 41 41 41 41 42 42 42 42 44 44 44 44 44 44 44 44 45 46 46 46 47 47 47 47 47 47 47
49 49 48 48 49 49 47 46 44 44 44 43 43 43 42 43 43 42 41 40 40 40 40 40 39 39 39 38 38 41 39 38 38 39 39 40 40 41 41 41 41 41 41 42 42 41 42 43 43 43 43 43 44 45 45 46 45 45 47 48 48 48 49
48 48 48 49 49 48 46 46 45 45 45 44 43 43 43 43 43 42 41 40 39 39 39 40 39 39 39 38 39 39 38 38 38 37 38 39 40 40 41 41 41 41 41 41 41 39 40 40 42 42 42 42 43 43 44 46 44 42 42 42 42 42 42
49 48 48 48 46 45 46 46 45 45 44 42 42 43 43 42 41 41 41 40 39 39 39 40 39 39 39 39 40 39 38 37 37 37 37 38 39 39 40 42 44 43 42 42 40 39 39 41 41 40 40 40 40 41 42 45 46 46 43 42 42 41 41
50 49 48 47 47 45 45 44 44 45 44 44 44 43 42 41 39 39 40 41 42 40 39 40 40 38 39 39 40 39 38 37 36 36 37 37 38 38 39 41 42 42 42 42 39 39 38 40 40 40 40 39 38 39 41 43 43 43 44 44 45 45 44
50 49 47 47 47 46 44 43 44 45 45 46 44 41 40 40 39 39 39 39 40 41 39 39 40 39 39 39 39 40 39 37 36 37 37 38 38 39 39 39 40 39 38 38 38 38 38 38 40 40 40 39 38 37 42 42 43 43 43 43 43 44 44
50 50 49 47 46 45 44 44 44 44 42 41 41 39 39 39 39 40 39 38 38 38 39 39 39 38 39 39 39 39 38 37 37 37 36 37 37 37 38 39 40 40 38 38 38 38 38 38 39 40 40 39 39 40 41 41 41 41 42 42 42 43 43
50 49 48 47 46 45 46 45 44 43 41 40 40 39 38 37 37 37 37 36 37 37 38 40 38 39 38 38 38 39 39 38 38 38 37 37 37 38 38 39 39 39 38 38 38 38 38 38 38 39 39 38 38 38 39 41 40 40 40 40 40 40 41
48 48 47 46 45 43 42 43 43 42 40 39 38 37 36 36 35 36 36 36 35 36 36 37 39 38 38 38 38 38 38 38 37 38 36 36 37 37 38 38 39 39 38 37 37 37 37 37 37 38 37 37 37 37 38 39 38 38 38 38 37 37 38
47 46 46 47 46 42 41 41 40 39 38 37 36 35 34 34 34 35 35 36 36 36 36 35 36 37 37 37 37 37 37 37 37 38 38 37 38 38 38 38 38 37 37 37 37 37 37 37 37 36 36 36 36 36 37 37 37 37 36 36 35 36 36

ECMWFFLT1_sfc_temp_003.txt.gz
Temp
67 67 65 65 65 67 67 67 68 67 68 69 68 69 69 68 68 67 67 67 67 68 68 67 66 67 67 67 65 65 65 66 65 64 63 64 63 62 66 67 67 67 65 64 63 60 58 56 60 65 67 69 71 72 72 74 74 74 72 73 77 76 75
66 66 66 66 66 66 66 66 67 68 68 67 69 67 68 68 67 67 67 66 66 66 68 67 66 66 64 64 64 64 63 63 64 64 64 63 64 63 65 65 66 66 66 64 63 62 59 58 58 59 62 67 69 72 72 73 74 74 75 75 77 77 76
66 65 66 65 65 65 66 65 67 67 68 67 67 67 67 68 67 67 66 65 64 65 65 65 64 64 63 63 63 63 63 62 62 62 61 63 65 64 64 64 64 65 65 64 63 61 62 62 58 61 63 62 62 67 70 71 73 75 75 75 74 77 77
65 65 65 64 64 64 66 65 66 67 67 67 67 66 66 67 66 66 65 65 65 65 65 65 64 64 63 63 63 63 62 62 62 61 61 61 63 63 63 64 63 63 60 59 60 61 60 60 61 63 64 68 66 63 68 71 72 74 76 76 75 76 77
67 65 65 65 64 65 66 65 66 66 66 66 66 66 65 66 65 65 65 65 64 64 64 64 64 64 64 64 63 63 62 62 62 61 60 59 60 61 61 62 62 62 62 60 60 60 59 59 59 60 63 67 68 70 74 72 74 74 76 77 78 78 78
67 67 67 67 66 66 66 66 65 66 66 65 66 66 65 65 65 64 64 64 64 64 64 64 64 64 63 63 63 62 61 61 61 61 60 58 58 58 60 61 62 61 61 63 62 60 59 59 59 58 64 66 61 64 70 72 71 77 78 78 80 80 80
66 66 67 68 67 67 67 66 66 67 66 66 66 66 66 66 66 65 65 64 64 64 64 63 63 64 64 64 63 61 61 61 61 60 60 59 59 59 60 59 60 61 60 61 61 61 59 58 57 57 57 61 63 64 69 71 74 71 75 79 79 81 80
67 67 67 68 68 66 66 66 67 68 67 67 67 67 66 65 65 64 64 64 63 63 63 63 63 63 63 63 63 61 61 62 61 61 60 59 59 59 58 58 58 60 60 61 61 60 61 59 58 57 56 54 57 62 63 69 71 71 71 76 79 79 79
67 67 67 67 67 67 66 66 66 66 68 68 67 66 65 65 64 64 64 64 64 64 64 63 63 63 63 62 62 61 60 62 60 60 60 60 58 58 58 58 59 58 59 60 61 60 61 60 59 60 59 57 54 54 60 61 65 68 73 72 77 78 78
65 65 66 66 65 65 66 66 67 66 67 66 65 66 64 65 65 65 64 63 63 63 63 63 63 63 63 62 61 60 60 61 61 60 60 59 59 59 59 57 58 59 59 58 59 60 60 60 61 60 60 58 57 54 54 56 60 63 69 72 70 75 78
66 66 66 66 66 65 64 65 65 65 65 65 65 64 65 63 64 64 64 63 63 63 63 63 63 63 62 62 61 61 61 61 60 60 60 60 59 59 58 59 59 59 59 58 58 58 59 59 59 60 61 61 60 56 55 54 56 63 64 69 71 71 75
66 66 66 66 66 65 65 65 65 65 65 64 64 64 63 63 64 64 64 64 63 63 63 63 63 63 63 62 61 60 60 61 60 59 59 58 58 58 57 57 58 58 58 58 58 58 58 59 59 60 61 61 61 59 56 56 52 60 65 64 68 73 72
67 66 66 65 65 65 66 65 65 64 64 65 65 65 64 64 64 63 64 63 63 63 62 62 63 62 62 61 61 61 60 60 59 59 59 59 59 58 57 57 57 57 58 58 59 58 58 59 59 59 60 60 59 59 58 56 53 54 62 63 65 68 70
65 66 66 65 65 65 66 65 65 66 66 64 65 64 64 65 65 64 64 64 64 62 61 61 61 62 61 60 60 60 60 60 59 59 58 58 58 57 58 57 57 57 58 56 58 58 59 59 59 59 59 59 58 58 57 55 54 55 60 64 64 65 68
66 66 65 65 64 66 66 65 65 65 64 65 65 65 66 64 65 65 65 64 63 63 62 62 61 62 61 59 58 59 58 59 58 58 57 57 57 57 56 57 57 57 58 57 57 59 60 59 60 59 59 57 57 57 58 54 54 54 54 60 61 65 65
65 64 64 65 64 65 65 65 65 64 65 64 64 65 65 64 64 65 64 63 63 62 62 61 61 61 60 60 59 58 58 58 57 56 56 56 58 57 56 56 56 57 57 56 57 58 58 58 60 59 57 58 56 56 57 56 53 52 52 55 59 60 62
65 64 64 64 64 65 66 65 65 64 65 65 64 64 64 65 64 64 63 62 62 62 61 61 61 61 60 60 59 58 58 57 57 57 56 57 57 57 56 55 56 56 57 55 56 57 58 58 58 58 58 58 57 56 55 55 54 52 52 51 56 59 60
64 64 64 65 64 65 65 65 64 65 65 64 64 63 63 64 64 64 61 62 62 62 61 61 60 59 59 59 58 57 57 57 56 56 56 56 55 56 56 55 56 57 56 55 55 56 57 55 58 58 57 58 58 58 57 56 55 55 53 51 53 57 58
64 64 64 64 65 65 65 65 64 64 65 64 63 63 63 63 64 64 63 63 62 62 62 61 60 59 59 58 57 57 56 56 56 56 56 56 56 56 55 56 56 56 56 55 55 55 56 55 56 56 56 57 59 58 56 56 56 55 54 53 53 54 57
65 65 64 65 65 65 65 64 64 64 64 64 63 62 63 63 63 63 63 62 62 61 60 60 59 58 58 58 57 57 56 56 55 55 55 55 56 56 56 56 55 55 55 55 55 55 55 55 54 54 55 55 56 56 55 56 56 56 55 54 55 56 56
66 65 65 65 65 65 64 63 63 64 63 63 63 63 63 62 61 62 62 62 61 60 59 59 59 58 58 57 57 56 55 54 55 54 54 55 54 55 55 55 55 55 55 56 55 55 55 54 55 54 55 56 56 55 54 54 54 54 54 54 54 54 56
65 65 64 64 64 64 63 63 63 63 62 62 60 62 62 61 60 61 61 60 60 59 58 57 58 58 57 56 56 55 54 54 53 53 53 54 54 54 55 55 55 55 54 50 47 47 48 48 52 52 54 55 54 54 55 55 54 54 54 53 53 55 55
64 64 64 63 63 63 63 63 62 62 62 62 61 59 59 60 60 59 58 59 58 57 56 56 50 46 50 56 56 55 54 54 54 53 53 53 53 54 54 54 54 50 47 47 46 44 44 44 45 49 52 53 53 53 52 52 52 53 53 52 53 53 52
63 63 63 63 63 63 63 62 61 59 57 55 56 56 55 58 58 59 58 56 55 54 55 53 42 41 42 44 53 54 54 53 53 53 53 52 52 53 53 54 54 52 51 49 51 44 43 43 43 43 43 45 47 51 51 50 51 52 51 51 52 53 52
62 62 63 63 63 63 61 60 59 57 54 54 55 56 56 57 56 56 55 55 53 52 52 46 40 40 40 41 45 54 54 53 53 53 53 53 53 53 53 52 53 52 52 52 51 52 49 45 42 42 41 41 41 41 43 48 49 50 50 50 51 52 52
62 62 62 63 62 60 60 59 58 57 55 53 52 52 53 54 54 54 55 55 53 52 52 43 41 41 40 40 40 46 55 53 53 53 53 52 52 52 52 51 52 52 52 48 50 53 52 51 46 44 43 42 42 41 40 40 41 48 51 49 50 50 52
61 62 62 61 60 60 59 59 58 57 55 54 53 51 50 51 52 53 54 55 54 54 53 44 41 41 41 39 38 42 54 52 52 52 52 52 52 52 51 51 51 51 52 52 52 51 51 51 50 50 50 51 51 49 43 41 40 39 43 49 50 49 52
60 61 62 60 59 59 59 58 57 56 56 55 55 53 52 51 50 51 52 54 53 53 53 43 40 40 40 39 38 41 53 51 52 52 52 52 52 51 51 51 50 50 51 51 51 49 49 49 49 48 48 48 49 50 51 52 53 53 51 50 50 50 51
59 60 60 59 58 58 57 57 56 55 55 56 56 54 53 52 50 50 52 52 52 52 52 41 40 40 40 39 38 49 53 52 52 52 52 52 52 53 52 51 51 50 50 50 47 42 43 47 47 47 46 47 49 49 50 49 46 46 50 52 52 53 53
58 59 59 58 57 57 55 55 54 55 54 54 54 53 52 52 53 52 51 51 52 53 53 45 39 40 40 39 41 52 53 53 53 51 51 52 52 52 52 52 51 50 50 50 45 41 40 40 46 46 46 47 47 47 48 50 46 43 41 42 42 43 42
58 58 58 57 57 56 56 57 55 54 53 51 51 52 52 52 53 52 51 51 54 53 54 48 40 40 39 39 43 51 53 53 52 51 51 52 52 52 51 46 47 49 49 49 43 40 39 42 45 46 45 45 44 44 45 48 48 48 44 42 41 40 40
58 58 58 58 57 55 54 52 52 52 50 50 51 52 51 51 51 52 52 50 48 51 53 49 41 40 39 39 43 51 52 53 51 51 51 51 51 51 51 48 45 45 47 46 41 40 38 41 45 45 44 43 42 42 44 45 45 45 46 46 47 48 46
58 59 59 59 58 56 54 52 50 50 51 53 52 52 51 52 50 50 50 50 49 51 53 53 49 39 40 40 40 49 53 51 50 50 51 50 49 50 50 50 48 41 39 38 38 37 37 37 42 44 43 42 41 40 44 44 44 44 44 44 44 45 45
58 59 60 58 56 53 51 50 51 52 51 52 51 50 49 49 48 48 48 50 51 51 51 53 51 40 39 39 38 40 50 50 50 50 50 49 49 48 49 50 50 45 40 39 38 38 37 37 38 42 42 41 41 42 42 42 42 40 42 42 42 42 43
59 58 59 56 52 51 51 52 51 51 50 48 48 46 45 46 47 49 49 48 49 50 49 44 51 44 40 39 38 38 45 49 49 49 47 48 48 48 48 49 49 46 39 38 37 37 37 37 37 41 40 38 37 37 40 41 41 41 41 40 40 41 41
57 56 54 54 52 51 50 49 49 48 46 46 45 46 46 47 49 49 49 50 51 51 51 50 41 45 41 39 38 38 37 41 39 44 45 45 46 47 48 48 47 41 38 37 37 37 37 37 37 40 37 37 37 36 37 40 40 39 39 39 39 39 40
55 53 52 53 52 50 48 48 47 47 46 45 44 46 48 48 49 49 51 54 54 55 53 53 45 39 42 38 38 37 37 36 37 43 44 44 46 47 47 46 44 38 37 37 36 36 37 37 39 37 36 36 36 36 39 39 38 38 37 37 37 37 38

ECMWFFLT1_sfc_temp_006.txt.gz
Temp
74 72 72 73 74 74 73 73 74 74 74 75 74 75 75 75 74 74 74 73 74 75 75 74 73 74 73 73 72 72 73 72 70 67 66 68 63 62 64 63 62 65 65 65 65 63 61 59 60 68 69 70 71 73 73 70 75 79 77 78 81 83 82
75 74 75 75 74 73 72 73 73 74 74 74 75 74 74 74 74 73 73 73 73 74 76 74 73 72 71 70 70 69 69 70 70 70 70 69 69 67 68 69 70 70 70 68 67 67 62 59 60 60 63 67 68 70 72 75 77 77 78 79 81 82 82
75 75 76 73 73 72 71 71 72 73 73 73 73 74 73 74 73 73 72 72 71 72 73 72 71 70 70 69 69 69 68 67 68 69 68 69 70 70 70 69 69 68 69 67 67 66 65 65 61 62 64 63 62 68 70 72 75 78 79 78 78 82 82
73 73 73 71 72 72 71 71 72 73 73 72 72 72 72 73 72 73 72 71 71 71 72 72 71 72 70 69 69 69 68 68 68 67 67 68 69 69 69 69 68 67 65 64 64 64 63 62 62 63 65 68 68 65 69 72 73 77 80 81 81 81 82
73 73 72 71 72 71 72 72 73 73 72 72 72 72 71 72 72 71 71 71 71 70 70 71 71 72 71 71 70 70 68 68 68 67 66 65 67 68 68 69 68 68 68 67 66 65 64 63 62 62 64 67 68 70 74 72 76 77 80 82 85 84 83
75 74 74 73 73 73 73 73 72 72 72 71 71 71 70 70 71 70 70 71 70 70 70 71 70 70 70 70 69 68 68 68 67 67 66 64 65 66 67 68 69 68 68 68 67 66 66 65 64 62 66 68 63 65 71 74 73 78 80 82 85 86 87
75 75 75 75 74 75 75 73 73 73 72 71 71 71 71 72 72 71 71 70 71 70 70 70 70 70 70 72 69 68 67 68 67 66 66 65 65 64 67 67 67 68 67 68 67 67 65 64 63 63 62 64 64 65 72 75 78 77 81 85 86 87 86
76 76 76 77 75 75 75 74 74 74 74 73 73 72 72 71 71 71 70 70 70 69 69 69 69 69 69 70 70 68 68 68 67 67 66 65 64 64 64 66 66 67 67 69 68 67 69 67 65 64 62 60 62 64 64 71 74 76 77 82 84 85 85
77 77 77 77 76 76 75 75 74 74 75 75 74 73 72 72 71 70 70 70 70 69 69 69 69 70 69 69 68 67 66 68 66 65 66 65 64 63 64 65 66 67 67 67 68 68 68 67 66 66 64 62 60 60 63 62 66 71 78 77 81 83 84
74 75 76 75 75 75 75 75 75 75 75 74 73 73 71 72 71 71 70 70 69 69 69 69 69 69 69 69 68 67 66 67 67 66 66 66 65 65 65 63 65 66 66 65 66 66 66 66 67 66 66 64 63 59 59 61 62 63 70 76 74 79 82
75 75 76 75 75 74 74 75 75 74 74 74 74 72 72 71 71 71 70 70 69 69 69 69 70 69 68 68 67 67 67 67 66 66 66 66 65 65 65 65 65 66 66 65 65 64 64 65 65 66 66 66 66 61 61 59 62 66 66 70 74 75 79
75 75 76 76 75 74 74 75 74 74 74 74 73 72 71 71 71 70 70 70 70 69 69 69 69 69 69 67 67 66 66 67 66 65 65 64 64 65 64 63 64 65 65 65 64 65 64 64 65 66 67 67 66 64 62 61 59 67 70 66 69 73 74
77 76 76 75 74 75 75 75 75 74 73 75 74 73 73 72 71 71 71 70 69 70 69 69 69 69 68 68 68 67 66 66 66 65 65 66 66 64 63 63 63 64 64 65 66 65 65 65 64 65 66 65 65 65 64 62 60 60 68 68 69 71 73
74 76 75 75 74 74 75 75 75 75 76 74 74 73 73 73 73 72 72 71 71 70 69 68 69 69 68 67 67 66 67 67 66 66 65 63 64 63 64 64 64 63 64 62 64 65 66 66 65 64 65 65 65 65 64 62 60 61 65 69 69 70 73
74 75 74 74 73 75 75 75 75 75 74 74 75 74 74 73 73 72 72 72 71 71 70 70 69 69 68 66 65 65 65 66 66 65 64 64 64 63 62 63 64 63 64 63 63 65 68 67 68 68 67 65 65 64 65 62 61 60 59 65 66 70 69
74 73 73 73 73 74 74 74 76 74 74 74 75 75 75 74 73 74 73 72 72 71 70 70 68 68 67 66 66 65 65 65 64 63 63 63 65 65 63 62 63 63 63 62 62 63 64 64 67 67 65 65 64 64 65 65 61 59 59 61 64 65 67
73 73 72 73 73 73 74 74 75 74 75 75 74 75 76 75 74 73 72 72 72 70 70 68 68 68 67 67 66 65 65 65 64 64 63 64 65 64 63 62 62 62 62 61 62 62 64 64 64 65 64 65 64 63 63 62 62 60 60 58 62 65 67
72 72 72 72 72 73 73 74 74 75 75 74 75 74 75 75 74 73 71 72 71 70 70 69 68 68 67 67 66 65 65 65 64 64 63 63 60 62 62 62 62 62 62 60 61 62 63 61 63 63 63 64 65 65 64 64 63 63 61 59 61 64 65
70 72 72 70 69 72 72 73 74 74 76 75 75 74 74 74 74 74 73 73 72 71 71 69 69 68 68 67 66 65 65 64 64 64 63 62 63 63 61 62 61 62 62 60 60 60 61 60 61 61 61 63 64 63 62 62 62 62 61 61 61 61 64
70 72 72 72 71 72 73 73 74 74 75 75 74 73 74 74 73 74 73 72 71 70 70 69 68 67 67 67 65 65 63 63 62 62 62 63 63 62 62 62 61 61 60 61 60 59 60 59 59 59 60 60 62 61 60 61 62 61 61 60 62 62 63
69 70 72 74 74 73 74 74 74 74 74 73 73 74 73 71 72 73 73 72 71 70 69 69 68 68 67 66 65 64 64 62 62 62 61 62 61 61 61 61 61 61 61 61 60 59 58 58 59 58 60 60 60 59 59 60 60 60 60 60 60 61 63
69 71 71 72 72 73 73 74 73 74 73 73 72 74 71 69 68 71 71 70 70 69 67 66 67 67 66 65 65 63 63 63 62 61 61 61 61 61 61 61 61 61 58 52 47 48 49 49 54 55 57 58 58 58 58 59 59 59 59 59 59 61 61
71 72 71 71 71 72 73 72 72 72 72 73 73 73 70 70 69 68 67 68 68 65 65 67 59 54 56 65 64 64 62 62 62 61 61 60 60 60 60 61 60 54 50 49 47 45 43 43 45 51 54 56 55 56 56 56 57 58 58 58 58 59 58
71 71 71 72 71 71 72 72 71 70 70 71 70 68 68 67 66 64 66 67 65 63 63 61 45 46 47 51 62 62 62 61 61 61 60 59 59 60 60 61 61 55 52 50 51 43 42 43 42 42 43 45 47 51 52 52 54 55 55 56 57 58 58
71 71 71 72 72 72 71 71 70 69 69 68 66 66 65 65 65 66 66 66 63 61 61 47 43 44 45 46 52 62 62 61 60 60 60 60 60 60 60 59 59 59 59 59 58 57 51 44 42 42 41 41 41 41 43 49 51 52 53 54 55 56 57
71 71 71 71 71 71 70 69 69 68 67 66 66 65 66 66 65 66 65 64 60 59 55 43 43 43 43 44 45 53 64 62 61 60 60 60 60 60 59 59 58 58 59 52 54 58 58 58 47 42 41 41 41 41 41 40 41 48 52 51 52 53 55
70 70 70 70 69 70 69 68 68 69 69 68 66 65 65 65 65 65 64 63 61 59 56 44 42 42 42 41 41 47 63 60 60 60 60 60 59 59 58 58 58 58 59 59 59 57 57 57 56 56 55 56 56 52 43 40 40 40 44 50 51 50 53
68 69 70 70 69 69 68 67 67 68 68 66 65 65 65 65 65 65 64 63 62 60 56 42 41 41 41 41 40 44 61 59 59 59 59 59 59 58 59 57 57 57 57 57 58 55 55 55 54 53 53 54 55 55 56 56 56 54 52 51 52 53 54
67 68 68 69 68 68 67 67 66 67 67 67 67 67 66 66 64 64 63 63 62 60 55 40 41 41 40 40 39 55 60 59 58 59 59 59 60 60 60 59 58 57 58 56 51 44 46 53 53 52 51 52 53 54 55 52 49 49 54 56 55 54 54
66 66 67 67 68 67 67 66 66 67 66 66 66 66 65 65 64 63 62 62 60 59 53 43 40 40 40 39 44 58 59 60 60 59 59 59 59 59 59 59 58 58 57 57 49 43 41 41 51 50 50 50 51 52 53 55 50 45 42 43 43 42 42
66 66 67 66 67 67 67 67 67 67 66 65 65 65 65 64 64 63 61 60 59 57 56 46 40 40 40 39 46 58 60 60 59 59 59 59 60 60 59 51 52 56 55 55 46 42 40 45 50 49 49 49 49 50 51 54 55 55 46 42 41 41 42
65 65 66 66 67 66 66 66 67 67 66 66 65 66 65 63 61 59 59 57 51 57 58 50 39 41 39 39 46 56 59 60 58 58 58 59 59 59 59 55 48 50 53 51 42 41 39 43 49 49 48 47 45 46 48 51 51 50 51 51 51 51 48
64 64 65 66 67 67 67 67 66 66 65 66 64 64 61 61 59 59 58 57 56 59 60 59 50 39 40 39 39 53 58 57 56 56 57 58 57 58 58 58 55 44 40 41 40 38 38 38 45 48 47 45 44 43 48 49 49 48 48 48 48 48 48
63 64 65 65 66 66 66 65 65 64 63 63 63 61 59 59 58 57 58 59 59 59 61 60 51 39 39 39 36 41 56 56 56 56 56 56 57 56 57 58 58 50 39 38 37 37 37 37 38 45 46 44 45 45 44 45 45 42 45 45 45 45 46
64 63 64 65 64 65 65 65 63 60 59 58 58 56 53 54 56 56 58 58 58 59 55 49 55 40 38 38 38 37 50 55 52 53 52 54 55 55 55 56 57 47 36 38 36 37 37 37 37 43 44 40 38 37 42 44 43 43 43 43 43 43 44
62 62 62 63 63 63 63 61 59 57 56 56 54 51 51 52 54 55 57 57 58 58 58 52 44 49 39 39 37 38 37 43 40 48 51 52 52 54 55 54 54 41 36 37 38 37 38 37 38 43 39 38 37 37 38 42 42 41 41 41 41 41 42
62 62 62 62 62 60 58 56 55 54 53 51 48 49 52 54 54 52 54 57 57 58 58 57 45 43 46 37 38 37 36 35 36 47 49 50 52 52 52 53 48 37 38 37 37 38 38 38 41 38 37 36 36 37 41 41 40 40 39 39 39 40 41

ECMWFFLT1_sfc_temp_009.txt.gz
Temp
75 73 74 75 75 76 75 74 75 75 76 76 76 77 77 77 76 75 75 75 76 77 78 76 75 75 75 75 73 74 75 73 72 70 69 68 67 65 66 65 65 63 64 63 63 59 58 57 61 65 66 68 70 71 73 74 72 69 69 67 69 70 71
76 75 76 76 75 75 74 75 75 76 75 76 76 75 75 76 75 74 74 75 75 76 78 77 75 75 73 72 72 71 71 71 71 71 71 70 70 68 66 66 66 65 65 64 64 64 60 59 61 62 62 67 67 68 70 73 73 72 71 68 67 69 70
76 76 77 75 74 74 73 73 74 74 74 74 74 75 75 76 75 75 74 74 73 74 74 74 73 72 72 71 71 71 71 70 71 70 69 71 72 71 71 69 69 69 68 64 64 67 68 67 63 63 66 65 63 66 69 70 73 75 77 74 71 72 76
75 75 74 73 74 73 73 73 74 74 74 74 73 73 74 74 73 74 73 73 73 74 74 74 73 74 72 71 71 71 70 70 69 69 69 69 70 69 70 71 69 68 66 66 66 68 66 65 65 66 68 71 69 66 69 71 72 75 74 74 74 76 78
75 75 73 72 73 73 73 73 74 74 73 73 73 73 72 73 73 72 73 73 73 73 73 74 74 74 73 73 72 71 71 70 70 69 68 67 68 69 68 69 69 69 69 68 68 68 67 66 65 64 67 70 71 72 74 71 75 74 72 75 78 79 79
75 75 75 74 74 74 74 73 73 73 73 72 72 72 72 72 73 72 72 72 72 72 72 73 72 73 73 72 72 71 70 69 69 68 67 66 66 65 66 69 70 71 69 69 69 68 68 67 66 64 68 70 64 66 71 73 71 76 78 78 80 80 81
75 75 75 75 75 75 75 74 74 74 73 72 72 72 72 73 73 73 73 72 72 72 72 72 72 73 73 74 72 71 70 70 70 69 68 67 67 67 67 67 67 69 69 69 68 68 68 67 65 64 63 65 66 66 71 72 75 73 77 81 82 82 83
76 76 77 76 75 75 76 75 75 75 74 74 74 73 73 73 73 72 72 72 72 72 72 71 72 72 72 73 72 70 70 70 70 69 68 67 67 67 66 66 67 69 68 70 69 68 69 68 66 65 63 60 62 65 66 71 72 72 74 79 82 82 83
77 77 77 77 76 77 76 75 75 75 75 75 74 73 73 73 72 72 72 72 72 71 72 72 72 72 71 71 71 70 69 71 68 69 69 68 66 66 67 67 68 68 68 68 69 69 68 67 67 67 65 63 60 59 64 64 67 69 75 74 79 83 84
77 77 76 77 76 76 76 75 76 76 76 75 74 73 72 73 72 72 72 71 71 71 71 72 72 72 71 71 70 69 69 70 70 69 69 68 67 68 67 67 68 69 68 67 68 68 67 67 66 67 68 65 63 60 59 61 64 65 71 73 71 77 82
77 78 78 77 77 76 76 76 76 75 75 75 75 73 73 72 72 72 72 71 71 71 71 72 72 72 71 71 70 71 70 70 69 69 69 69 68 68 67 68 68 69 68 67 67 66 67 66 66 66 67 68 67 62 62 59 61 66 67 72 73 73 77
77 78 78 78 77 76 76 76 76 76 76 75 74 73 72 73 72 72 72 72 71 71 71 71 71 71 71 70 70 70 69 70 70 68 68 68 67 68 67 66 67 68 68 67 67 67 67 67 67 68 67 68 67 66 63 62 59 66 70 67 71 74 74
78 78 78 77 77 76 77 77 77 76 75 76 75 74 74 73 72 72 72 72 71 71 71 71 71 71 70 70 70 70 69 69 69 68 68 69 69 68 66 66 66 67 67 68 69 68 68 68 67 67 67 66 66 66 66 63 60 60 68 68 70 72 74
75 75 75 77 77 76 76 76 77 76 77 75 75 74 74 74 74 73 73 73 72 71 71 70 71 70 70 69 70 70 69 70 69 69 68 67 68 67 68 68 67 66 66 65 67 68 68 68 68 67 67 67 65 66 65 63 61 61 66 70 69 70 73
75 73 72 72 75 75 72 74 76 77 75 75 76 75 75 74 75 74 74 74 73 73 72 72 71 71 71 69 69 69 68 69 69 69 67 67 67 67 65 66 68 67 67 66 65 68 71 70 71 70 70 69 69 67 67 64 62 61 60 65 67 71 70
75 74 72 71 69 71 74 74 75 75 77 76 76 76 75 75 75 75 75 74 74 73 73 72 71 71 70 70 69 68 68 69 68 67 66 67 69 68 65 65 66 66 65 64 64 65 66 67 69 69 67 68 66 66 67 66 63 60 60 61 65 66 68
72 74 73 72 71 71 69 74 74 73 76 77 77 76 77 77 75 75 74 74 74 74 73 72 71 72 71 70 70 69 69 68 68 68 67 68 69 67 66 65 65 65 65 64 64 65 66 67 66 67 66 67 67 66 66 66 65 62 62 60 63 66 68
70 68 66 67 72 75 73 75 73 74 72 75 75 76 77 77 76 75 73 74 74 74 73 73 72 71 71 70 70 69 69 69 68 68 68 67 65 66 66 65 65 66 65 63 63 64 66 64 66 65 65 66 66 67 66 66 65 65 63 61 62 65 66
68 67 65 64 64 65 71 72 74 73 73 74 73 73 74 75 76 75 76 75 75 75 74 73 73 72 72 70 70 69 69 69 68 68 67 67 67 66 65 65 65 65 64 63 63 63 63 62 63 63 63 64 65 64 63 63 64 63 63 63 63 62 65
67 68 67 65 65 68 70 70 73 74 74 74 75 74 71 72 75 75 76 76 75 75 74 73 72 71 72 71 70 69 68 68 67 67 67 67 67 66 65 65 65 64 63 63 62 62 62 61 61 61 62 61 64 63 62 62 63 62 62 61 62 63 63
70 70 71 72 73 72 71 71 71 73 73 71 72 75 73 71 72 74 75 76 76 75 74 73 73 72 72 70 69 68 68 66 66 66 65 66 65 65 65 65 64 64 64 63 62 61 60 59 60 59 60 61 60 60 59 60 61 61 61 61 61 62 63
67 66 66 68 69 69 70 72 72 73 72 72 72 75 75 73 69 68 75 75 75 74 73 72 72 71 70 70 69 67 67 67 66 65 64 64 64 64 64 64 64 65 60 52 47 49 50 50 56 56 58 59 58 58 58 59 59 60 60 60 60 62 62
72 71 71 70 71 71 71 71 72 73 73 73 73 73 73 71 70 69 74 75 74 72 72 72 64 58 60 68 67 67 66 66 66 65 64 63 63 63 63 64 63 55 51 51 49 46 44 44 46 52 55 56 56 55 55 55 56 57 57 57 58 59 58
73 73 73 72 72 72 73 72 72 73 73 73 72 72 71 71 68 72 72 72 71 71 71 67 49 50 50 55 65 66 65 64 65 65 64 63 62 62 63 64 64 56 54 51 53 45 44 43 43 43 43 45 48 52 52 52 53 54 54 55 56 57 57
72 72 72 73 73 74 73 73 72 73 72 72 72 72 71 71 71 70 66 68 67 68 67 50 46 47 49 50 55 64 65 64 63 64 64 63 63 63 63 63 63 62 60 60 60 57 49 44 42 42 41 42 42 42 44 50 51 51 52 53 53 55 55
72 72 72 72 73 73 73 72 72 72 72 72 71 70 70 70 70 69 66 66 66 65 61 45 46 47 46 47 47 56 66 64 63 63 64 63 63 64 63 62 62 61 62 55 57 59 60 58 46 41 43 43 42 42 41 40 42 50 53 52 51 51 53
72 72 72 72 73 73 72 72 72 72 72 71 69 68 68 67 68 67 66 66 66 64 58 47 45 45 45 45 44 51 66 65 63 64 63 63 62 62 61 61 61 60 61 61 61 60 60 59 59 56 54 54 55 51 43 40 40 40 44 50 51 50 52
71 71 71 71 71 71 71 71 71 71 71 71 70 69 68 67 66 67 67 66 64 58 59 44 44 44 44 44 42 47 64 63 62 62 63 62 62 61 61 61 60 60 60 60 60 58 58 58 57 56 55 55 55 56 57 56 54 52 50 49 51 53 54
70 70 70 70 70 70 70 70 70 70 70 71 71 71 70 69 67 67 67 66 62 57 55 41 42 43 43 43 41 57 61 60 61 62 62 62 62 62 62 61 60 60 60 59 53 43 49 56 56 54 53 53 54 54 55 52 50 51 55 57 57 57 56
69 69 69 69 69 69 69 70 70 71 69 69 69 69 69 69 69 68 67 65 60 56 53 44 41 42 42 40 47 59 60 61 62 61 61 61 62 62 62 62 61 61 60 61 49 40 41 45 54 53 52 51 52 53 53 56 50 46 44 44 45 44 44
69 68 69 68 68 68 69 70 70 71 69 69 68 69 70 70 69 68 65 63 60 54 54 46 41 41 41 41 49 60 62 62 61 62 62 62 62 62 62 56 56 60 59 59 49 41 38 46 53 52 51 50 50 51 52 55 55 55 48 44 42 42 42
68 68 67 68 68 67 68 69 70 70 70 70 69 70 70 69 68 67 66 61 54 55 55 47 40 41 40 41 50 60 61 62 61 60 61 61 62 62 62 58 51 54 57 55 44 40 38 45 52 51 51 50 48 49 51 53 52 51 52 53 53 53 50
68 67 67 67 68 67 68 69 69 69 69 70 70 70 69 68 66 64 63 60 58 58 54 50 45 40 41 40 43 55 56 56 57 58 59 60 60 60 61 61 57 41 40 36 36 37 37 37 46 49 49 48 47 47 51 51 50 48 48 47 48 48 48
68 68 68 67 67 67 68 68 68 68 68 68 68 68 67 65 63 60 59 60 59 57 56 54 47 39 40 40 39 42 55 56 58 58 59 58 59 58 59 60 57 38 38 37 37 36 38 38 38 44 46 46 47 46 43 45 46 43 46 46 46 46 47
68 67 67 67 65 65 67 68 68 68 68 67 66 65 64 61 58 57 58 58 58 58 56 51 50 40 39 39 39 39 51 56 53 56 54 56 57 57 58 58 58 40 37 38 38 37 37 37 37 42 44 40 39 37 43 44 45 45 44 44 44 44 45
66 66 65 65 65 64 66 66 67 67 65 63 62 61 62 59 56 55 55 57 58 56 55 51 45 46 39 39 38 39 37 45 41 52 54 54 54 56 57 57 56 41 40 38 39 38 38 38 39 44 39 37 37 37 38 44 44 43 42 42 42 41 43
67 66 66 65 64 64 64 64 66 65 63 60 58 57 56 55 54 54 55 56 57 57 55 53 44 43 42 38 38 39 36 36 41 51 52 52 54 55 55 56 52 41 40 39 39 40 39 39 42 39 37 37 37 37 42 43 43 42 41 41 40 41 42

ECMWFFLT1_sfc_temp_012.txt.gz
Temp
68 67 69 69 70 70 69 70 69 70 71 72 71 72 71 71 70 70 70 69 70 72 71 70 68 69 68 70 68 68 68 67 66 63 62 61 60 60 63 62 61 63 63 62 61 58 56 54 57 63 64 64 66 66 67 68 69 69 67 67 68 68 68
70 69 70 70 69 70 69 69 70 70 70 70 71 70 70 70 69 68 68 68 67 68 71 69 68 69 67 66 66 66 65 65 65 65 65 64 63 62 61 62 63 62 63 62 62 61 57 54 56 59 61 64 64 64 65 67 69 69 69 68 69 69 68
69 69 70 68 68 69 68 68 68 68 68 68 68 69 68 70 69 68 68 67 67 67 68 68 67 66 66 65 65 65 65 64 64 64 63 63 65 64 65 64 63 62 61 60 61 61 62 60 55 58 61 61 60 62 65 65 67 69 71 70 68 69 69
69 68 67 67 67 67 67 67 67 68 68 67 68 67 68 68 67 68 67 67 67 67 68 68 66 67 66 65 66 65 64 63 63 62 62 63 64 62 63 62 61 62 61 60 59 61 61 60 59 59 61 65 64 61 63 65 66 70 72 71 70 70 70
69 69 67 67 67 67 67 67 67 67 67 67 67 67 67 67 66 67 67 67 67 67 66 67 67 68 67 67 65 64 64 64 64 62 61 60 61 61 61 62 62 63 61 60 61 61 60 58 59 57 59 62 65 65 69 66 67 69 70 72 73 72 72
70 70 69 68 68 67 67 67 66 66 66 66 66 66 66 67 67 67 66 65 65 66 66 66 66 67 66 65 65 64 63 63 62 62 60 60 60 59 60 61 63 63 62 63 63 62 62 61 61 57 60 63 57 59 65 66 64 68 71 72 73 74 76
70 69 69 69 69 68 69 67 67 66 66 65 66 65 66 67 68 68 67 66 66 66 66 66 66 68 67 67 65 64 64 63 63 62 61 61 60 60 61 60 61 61 61 63 61 62 61 60 58 57 56 58 58 60 64 66 68 67 68 73 75 77 76
70 70 70 70 69 69 69 69 68 68 66 67 67 66 67 67 67 67 66 66 66 66 65 66 67 66 65 66 65 64 64 64 63 62 61 61 62 61 61 61 62 60 60 61 61 62 62 60 59 58 57 53 54 56 56 64 65 66 67 71 75 75 75
71 71 70 70 70 70 69 69 69 68 68 67 67 67 67 67 66 66 66 66 66 66 66 66 66 65 65 64 64 63 63 67 63 63 62 62 61 61 61 62 62 61 61 61 62 61 61 61 60 60 59 57 53 51 55 55 59 62 70 68 72 73 75
70 70 69 70 70 70 70 69 70 69 69 68 68 67 66 67 66 66 66 65 65 66 66 67 66 65 65 65 64 63 63 64 63 63 62 61 62 62 62 62 61 61 60 61 61 61 61 60 61 60 60 58 58 53 51 51 54 55 63 68 65 69 73
71 71 71 71 70 70 70 70 70 70 69 69 69 68 67 66 66 67 65 65 65 65 65 66 66 65 65 64 64 64 64 63 62 63 63 62 61 62 61 61 61 61 61 62 60 60 59 59 59 60 60 61 59 55 54 51 52 57 58 63 67 66 70
72 72 72 72 71 71 70 70 69 69 70 69 68 67 66 67 66 66 66 65 65 65 65 65 65 64 65 63 64 63 63 63 62 62 62 62 62 61 61 61 60 61 60 61 61 60 61 60 61 61 59 60 60 58 56 55 51 57 61 58 62 68 67
74 73 72 71 71 71 71 70 70 69 69 70 68 68 67 67 67 66 66 66 66 65 65 65 65 64 64 64 63 63 63 63 64 62 62 62 65 62 61 60 60 59 60 60 60 61 60 60 61 60 60 60 59 59 58 56 53 54 60 59 60 64 68
72 72 72 70 70 70 70 70 70 70 70 69 69 68 68 68 68 67 68 67 67 65 65 64 64 64 63 63 63 63 64 64 64 63 62 62 64 63 63 62 62 61 62 60 60 61 61 62 60 61 60 59 58 59 58 55 54 54 57 60 60 62 65
71 71 70 69 70 70 70 69 71 71 69 69 70 70 70 69 68 68 68 68 67 67 66 66 65 64 64 63 62 64 63 63 62 63 61 62 61 63 61 61 62 61 61 61 59 62 63 62 64 63 63 61 59 59 59 58 55 53 53 56 57 62 62
70 70 69 69 69 68 67 68 70 70 71 70 70 70 70 69 69 69 69 68 68 67 67 67 65 65 64 64 64 63 63 62 61 61 61 61 63 63 60 59 60 61 61 59 60 59 60 61 62 63 60 60 58 58 59 60 56 53 54 55 58 59 60
67 70 69 69 69 67 67 67 69 68 67 66 68 68 70 71 70 69 68 69 69 68 67 67 66 66 66 65 64 63 63 62 62 61 61 62 63 62 60 59 60 61 60 58 59 59 59 60 60 60 58 58 58 58 58 58 58 55 54 54 55 60 61
61 66 66 66 64 64 65 65 64 64 62 62 63 64 68 71 70 70 68 69 69 69 68 68 67 66 65 65 65 64 63 63 62 62 62 62 63 61 60 59 61 61 59 58 58 58 59 57 60 58 57 58 58 58 58 57 57 57 55 54 54 57 58
65 65 66 65 64 62 61 61 61 61 63 62 61 63 65 69 71 70 70 70 70 70 69 68 68 67 67 65 64 63 63 62 62 62 62 62 61 60 60 60 60 60 59 57 57 58 57 57 58 56 56 57 58 57 55 55 56 55 55 54 54 54 56
64 64 63 63 63 62 61 61 62 62 61 61 61 62 65 68 69 70 71 71 70 70 70 70 68 66 67 67 65 64 63 62 62 61 62 62 62 60 60 60 60 59 59 58 57 57 57 55 55 54 54 54 57 55 53 54 55 55 54 54 54 55 55
65 65 65 64 64 63 62 61 61 62 61 60 60 60 61 61 60 60 63 67 70 69 69 69 69 68 68 66 64 63 63 61 61 61 61 61 61 60 59 60 60 60 59 58 55 53 52 51 51 51 52 52 52 51 50 51 51 52 52 52 52 52 52
65 65 66 67 66 65 64 63 62 61 60 60 61 61 62 62 61 62 64 65 66 65 66 66 68 67 67 66 65 63 63 63 61 61 60 59 59 59 59 59 59 59 56 53 51 51 50 50 51 50 50 50 50 49 49 49 49 49 49 50 50 52 51
66 66 66 66 66 66 66 66 66 64 63 62 63 63 63 61 62 61 63 64 61 59 59 61 59 58 60 66 64 65 63 61 61 60 59 58 58 58 58 57 58 56 53 51 48 46 45 46 48 50 50 50 49 48 47 46 46 47 47 47 48 48 48
69 68 68 67 67 68 68 68 67 68 67 66 66 65 65 63 62 62 64 61 61 60 60 60 54 51 51 55 64 62 61 60 60 59 58 57 57 57 57 59 56 53 52 51 49 45 46 44 43 43 45 47 48 47 47 45 45 45 45 45 47 47 47
69 68 68 69 69 70 69 69 68 67 66 66 67 67 66 65 64 64 63 62 60 58 59 54 48 48 50 51 55 62 61 60 59 58 58 58 58 57 57 57 57 55 54 54 54 51 47 44 43 43 42 42 42 42 44 47 46 45 45 45 45 46 46
68 68 68 68 68 68 68 67 67 66 66 67 66 66 66 66 65 65 62 61 59 59 58 45 45 47 48 49 51 56 61 61 60 58 58 57 57 57 57 56 56 57 58 57 56 54 53 50 45 43 43 43 42 41 40 40 42 46 48 46 45 45 46
68 68 68 68 67 65 65 65 66 67 67 67 65 64 65 64 64 64 63 62 60 60 58 47 44 45 46 46 48 53 62 60 59 59 58 58 57 58 57 56 56 56 55 54 54 54 54 53 51 48 45 45 46 46 43 41 41 40 42 45 45 45 47
66 66 66 66 65 64 64 64 65 65 65 65 64 63 63 62 62 63 62 62 60 57 57 45 44 44 45 45 47 51 60 60 60 59 59 59 58 58 57 57 55 54 54 55 55 54 54 53 53 51 48 49 48 49 49 49 48 46 45 44 45 46 47
66 66 66 65 64 64 63 63 63 64 64 64 64 64 64 63 62 62 63 62 59 56 54 43 43 43 44 44 47 56 58 57 58 58 58 59 58 57 56 55 54 53 53 53 51 48 50 52 51 49 48 47 47 48 49 50 48 48 50 50 49 48 49
65 65 65 64 64 63 63 63 62 64 63 63 63 63 62 63 63 62 62 62 57 54 49 43 42 43 43 45 50 56 57 57 56 56 56 57 56 56 57 57 56 54 53 53 43 43 45 48 49 47 48 47 48 47 47 50 48 45 44 42 41 41 41
65 64 64 63 63 63 63 63 62 63 62 62 62 62 63 63 63 63 62 60 56 53 49 44 42 43 44 46 50 56 56 55 55 56 56 56 57 57 58 56 56 54 53 49 38 40 39 45 47 46 47 46 46 45 46 48 50 50 47 46 44 44 43
65 64 63 62 62 62 62 61 62 62 62 63 62 63 64 62 62 63 59 56 52 52 48 44 42 43 43 44 50 54 55 55 55 55 55 55 56 56 57 55 50 46 43 38 38 38 38 42 45 45 45 44 43 43 44 46 45 44 44 44 45 46 45
63 63 63 62 62 62 63 62 61 61 61 64 63 63 63 63 61 56 54 55 53 51 48 46 44 42 43 41 41 49 51 51 52 53 53 54 55 55 55 50 40 38 38 36 37 37 37 39 41 42 41 40 40 40 43 42 42 42 42 42 42 44 44
63 63 63 62 62 62 61 61 60 60 61 62 61 61 61 59 56 55 55 54 53 50 49 47 44 40 41 41 40 44 50 51 51 52 52 52 53 52 53 49 41 39 39 38 37 37 39 38 39 40 40 40 41 42 40 40 41 41 41 41 41 42 42
63 63 63 63 61 60 61 61 61 61 61 60 60 60 58 56 56 55 54 53 52 51 50 47 44 40 40 40 39 39 47 49 46 49 50 51 51 51 50 49 43 39 37 38 39 39 39 38 37 39 40 39 39 38 39 40 40 40 40 40 40 40 41
62 63 62 62 60 60 60 60 60 60 60 60 59 57 56 54 53 52 52 52 52 51 49 46 43 42 39 40 38 40 37 42 42 48 49 49 49 50 51 50 41 39 39 38 38 38 38 38 38 39 39 38 37 37 37 38 39 39 40 40 40 39 40
63 62 62 61 61 59 59 59 60 59 59 59 57 56 55 54 53 51 49 48 50 50 49 47 43 42 41 38 38 40 39 37 41 46 47 48 49 50 50 48 43 38 39 39 40 40 39 38 39 38 38 37 37 37 37 38 39 40 40 39 39 39 39

ECMWFFLT1_sfc_temp_015.txt.gz
Temp
61 61 62 61 63 63 63 63 63 62 64 64 63 63 63 64 63 62 63 63 64 65 65 63 62 61 63 63 62 61 61 60 59 59 58 58 57 56 58 57 59 59 59 59 58 55 53 52 53 58 61 63 63 63 64 64 64 65 65 65 66 66 65
63 62 62 63 63 63 61 61 62 62 62 62 63 62 61 63 63 61 60 61 61 62 64 63 62 62 61 60 60 60 59 59 59 59 58 57 57 57 57 57 58 58 59 59 59 58 53 51 52 54 55 60 62 62 63 64 64 65 65 66 67 67 66
62 61 62 61 61 61 61 61 61 61 60 60 61 61 61 61 61 61 61 60 60 61 61 60 60 60 60 59 59 59 59 58 57 58 57 57 58 58 58 59 57 58 57 56 57 57 57 56 54 54 56 56 55 58 61 61 63 64 66 67 66 67 68
62 61 60 60 60 60 60 60 60 60 60 59 59 61 60 60 60 60 60 61 61 61 61 61 59 60 59 58 59 59 58 57 56 56 57 57 57 57 58 56 56 56 55 54 54 56 55 53 52 52 54 59 57 55 59 61 62 65 66 65 66 67 69
63 62 61 60 60 60 60 59 59 59 59 60 59 58 59 59 60 59 59 60 60 60 59 60 60 60 60 59 58 57 57 56 57 57 55 55 55 56 56 56 55 57 56 56 56 56 55 55 54 51 53 56 56 57 63 61 61 62 64 65 66 67 67
62 62 61 60 60 61 60 59 59 58 57 59 57 59 58 58 59 60 60 59 59 60 61 61 60 60 60 58 58 56 56 56 55 55 54 53 54 54 54 55 56 56 56 56 57 57 56 55 55 50 53 56 52 52 57 60 59 63 63 63 66 66 67
62 62 62 61 61 61 60 60 59 59 57 58 58 58 60 59 58 59 59 57 57 57 59 58 59 60 59 59 58 57 56 54 54 54 54 53 53 53 54 54 55 55 54 56 55 56 55 54 52 52 52 51 52 55 57 58 60 60 62 67 67 68 67
62 62 61 62 61 61 61 61 60 60 59 58 58 59 58 58 59 59 58 57 58 58 57 59 60 59 58 60 58 56 56 56 56 55 54 54 56 55 54 53 55 54 53 54 53 55 56 54 54 54 52 50 48 47 51 54 57 59 59 63 67 68 67
63 62 61 61 61 62 62 62 61 60 60 59 60 60 58 59 59 58 58 57 57 58 58 57 58 59 58 58 57 57 57 60 56 55 55 54 54 54 54 53 55 54 55 56 56 54 55 55 55 54 53 51 49 46 47 48 50 53 60 60 62 65 67
63 62 62 61 62 61 62 62 62 61 61 61 61 60 59 59 59 58 57 57 57 57 58 57 57 57 57 57 57 55 55 56 55 55 54 53 54 53 53 54 53 54 54 54 55 55 55 54 55 54 55 54 53 49 46 45 45 49 54 59 58 60 66
63 63 62 62 61 62 61 62 62 61 61 62 63 62 60 59 60 61 57 57 56 57 57 57 57 57 57 56 56 56 56 55 55 55 55 54 54 54 53 54 52 54 54 52 55 56 54 56 55 55 54 54 53 51 50 48 45 49 52 55 58 59 62
62 62 63 64 62 62 62 61 62 62 62 62 62 61 59 60 60 58 58 57 57 57 57 57 57 56 56 56 55 56 56 55 55 54 55 55 56 55 54 54 53 54 53 53 53 53 54 54 56 56 55 54 54 54 53 50 47 48 55 55 54 60 60
63 64 62 64 62 62 63 61 62 62 62 62 62 61 60 60 59 58 58 58 57 56 57 57 56 56 55 56 55 57 56 55 55 54 56 56 59 55 54 55 54 53 54 53 53 54 55 53 54 55 54 55 53 54 55 52 49 50 51 55 54 58 61
62 62 62 64 62 61 63 62 62 63 62 61 62 62 61 61 60 60 58 59 59 56 56 56 56 56 55 56 55 55 56 55 55 54 55 55 57 55 55 55 54 55 54 52 53 53 54 54 55 54 54 54 54 52 54 53 50 50 50 51 55 57 59
60 60 60 61 62 60 61 60 61 62 62 62 63 63 62 61 61 61 59 59 58 58 57 56 55 56 55 55 55 57 57 55 54 55 54 54 56 57 54 54 55 55 54 54 52 55 55 55 56 55 54 55 54 53 53 54 50 50 49 50 53 56 56
59 59 60 60 60 61 60 60 60 60 59 60 61 63 62 61 61 61 60 59 59 58 58 57 56 56 55 54 56 54 56 55 53 53 54 54 55 55 55 55 54 54 56 54 54 52 52 54 55 55 52 53 53 52 54 53 51 50 49 49 51 54 53
58 58 57 58 61 60 61 60 59 59 58 58 60 59 60 61 61 61 61 59 59 59 59 59 58 58 58 56 56 55 55 54 53 53 55 54 55 54 54 53 53 53 53 53 53 53 52 52 52 52 52 52 52 52 52 51 52 51 49 49 48 53 55
58 58 59 58 59 60 60 60 59 59 57 57 58 58 59 60 60 60 60 60 60 60 60 60 59 59 58 57 57 56 56 55 54 54 55 55 56 56 54 54 53 52 51 52 52 53 52 51 54 52 50 51 51 51 51 51 50 50 48 48 49 51 52
58 59 59 59 60 60 60 60 59 58 59 58 56 57 58 60 61 59 58 57 59 60 61 61 61 60 60 59 58 57 57 56 56 55 55 55 54 55 53 53 53 52 51 51 51 51 51 50 51 50 50 50 51 49 48 48 49 48 48 47 46 47 49
58 59 59 60 59 58 58 57 58 58 58 59 57 57 58 58 57 58 58 58 59 60 61 61 61 61 61 60 59 58 58 57 56 56 56 55 54 54 53 52 52 51 51 49 50 49 48 47 48 47 48 47 49 47 47 47 47 47 46 46 46 46 47
59 59 58 58 58 58 57 58 58 58 57 57 57 58 57 58 56 58 59 59 60 59 58 58 59 60 62 62 60 58 58 58 57 56 55 54 54 53 53 52 52 51 51 50 48 47 47 46 45 46 45 46 45 44 44 44 44 44 44 44 43 43 44
57 57 58 58 58 57 57 56 56 57 56 57 57 57 57 57 57 57 58 58 58 58 57 58 59 59 60 61 60 59 58 58 57 56 54 54 53 53 52 52 51 50 52 53 51 50 50 50 46 46 46 44 44 42 42 42 43 42 42 42 42 43 43
56 56 56 56 57 57 57 56 56 56 56 57 56 55 55 55 55 55 56 57 57 57 57 58 57 54 55 60 59 61 58 58 57 55 55 53 52 53 53 51 54 56 53 51 49 46 45 47 48 46 43 43 44 42 42 43 41 41 42 41 40 40 41
56 55 56 57 57 58 58 58 57 57 57 57 57 56 56 56 55 56 56 56 56 57 58 58 51 48 48 50 58 59 58 57 57 56 55 54 53 53 51 51 51 52 52 50 47 43 43 44 45 46 47 47 46 43 41 41 40 41 41 41 42 41 39
55 56 55 56 56 56 56 57 57 58 58 57 57 57 56 57 57 55 56 55 56 57 57 54 48 47 48 47 50 58 58 58 57 56 55 55 53 53 53 52 52 53 51 51 50 47 45 44 43 43 42 42 43 44 45 44 42 40 39 40 39 40 40
55 54 56 57 56 55 55 57 57 55 56 57 57 57 57 56 56 56 55 55 56 56 55 51 46 47 46 46 46 54 57 58 57 55 55 54 54 54 53 53 52 52 54 54 54 49 47 46 44 43 43 43 42 41 39 39 41 45 42 40 40 40 41
54 53 55 56 56 55 55 57 58 57 57 56 54 55 56 56 57 56 57 57 56 54 53 50 45 45 45 45 44 51 56 56 55 54 56 56 56 54 52 52 52 52 52 53 53 51 48 47 46 44 42 41 41 43 42 41 40 40 41 42 41 40 43
53 53 52 51 51 52 53 51 53 52 56 57 56 54 53 53 55 55 55 55 54 52 55 49 43 44 43 44 45 49 55 55 55 53 52 53 52 52 52 52 52 52 52 51 51 50 47 46 44 45 42 42 42 42 42 43 42 42 42 41 40 42 43
52 52 52 52 53 53 51 51 53 52 52 52 53 55 53 52 52 52 53 54 51 50 49 42 42 42 43 44 47 53 55 54 53 52 52 51 51 50 51 52 52 52 52 51 49 46 47 49 48 44 42 41 41 41 42 45 45 45 45 44 43 43 43
52 53 53 53 54 53 53 53 51 50 51 49 51 50 53 52 51 53 51 51 51 50 45 41 41 43 44 45 47 52 52 51 50 50 50 51 51 52 54 53 53 51 52 48 40 38 39 44 44 42 41 40 41 41 42 43 44 43 41 41 41 41 40
52 53 52 53 52 51 52 52 52 51 54 51 50 50 50 51 51 51 51 51 51 50 43 41 42 42 43 45 47 50 50 50 49 48 50 50 50 52 53 53 53 49 43 41 39 39 40 41 40 39 38 38 38 38 38 40 42 42 42 41 41 41 41
51 51 52 52 52 52 51 51 50 51 50 50 49 49 50 53 50 45 47 51 51 47 42 42 41 42 43 44 46 48 48 48 47 48 50 51 52 50 43 43 43 43 42 40 39 39 39 41 38 37 37 36 36 35 37 35 37 37 37 38 39 40 40
53 53 53 50 49 50 49 52 52 51 49 49 49 49 48 46 44 45 44 46 47 45 43 41 42 42 43 43 44 47 48 46 46 46 47 48 49 47 44 42 40 37 38 38 37 38 38 39 38 37 36 35 35 35 36 35 37 37 36 36 36 37 38
51 50 51 52 51 49 49 50 49 50 49 48 48 48 45 45 46 43 43 43 43 42 44 42 41 41 42 42 43 44 45 45 46 45 45 46 47 46 43 41 39 39 37 37 38 38 38 39 39 37 36 35 35 38 38 35 37 40 36 35 36 37 36
51 52 49 50 50 49 48 49 48 49 48 49 47 48 44 44 44 43 42 42 42 42 44 44 41 41 41 41 42 43 45 45 45 44 44 46 47 46 44 41 39 38 38 38 38 39 39 39 38 37 35 37 37 37 37 37 36 35 34 34 33 34 35
52 54 52 50 49 48 47 48 48 48 49 48 48 44 45 44 43 42 41 40 41 40 41 43 42 42 40 40 40 41 41 41 41 46 45 45 45 45 43 41 40 40 38 39 39 39 39 38 38 36 37 37 37 37 37 35 34 34 33 33 34 35 36
50 50 49 48 49 47 48 48 49 51 48 48 45 44 43 43 42 41 40 39 40 39 39 40 41 42 42 40 40 39 38 39 41 44 45 44 43 42 42 41 40 38 39 40 40 39 38 38 36 37 37 37 37 37 34 35 33 33 33 33 34 35 37

ECMWFFLT1_sfc_temp_018.txt.gz
Temp
58 57 57 58 57 59 58 58 59 58 59 59 59 59 60 61 60 59 59 60 60 61 61 59 58 58 59 60 58 58 58 58 57 58 56 57 57 57 58 56 57 57 57 56 55 53 50 50 53 55 56 59 60 60 61 62 62 63 64 64 65 65 65
57 58 58 59 58 58 57 57 58 57 57 57 58 58 59 60 60 58 58 59 60 59 61 59 58 58 58 57 57 57 56 56 56 56 56 55 54 56 57 57 57 57 57 56 56 54 51 49 49 51 53 55 55 58 60 61 62 62 63 63 65 66 65
58 58 58 58 57 56 57 55 55 56 55 56 56 57 58 58 58 58 58 58 58 59 59 58 57 57 57 56 56 55 56 55 55 55 54 53 54 54 55 57 55 54 54 53 53 53 53 53 53 53 52 52 53 54 55 58 61 62 62 63 64 65 66
58 58 58 56 56 55 56 54 55 54 55 55 56 56 57 57 57 58 57 57 58 59 58 57 56 56 55 55 56 56 56 55 55 54 55 53 54 55 55 54 53 54 54 52 52 52 52 51 50 50 50 54 54 53 55 59 60 61 62 61 60 61 62
60 60 59 57 56 56 54 54 54 54 54 54 54 55 55 56 57 56 57 56 56 55 55 55 56 56 56 56 55 55 54 53 54 55 54 53 54 53 52 53 52 54 54 54 53 52 52 52 50 50 50 51 50 51 57 57 56 61 63 64 63 62 64
60 60 59 58 57 56 55 54 53 55 53 56 54 55 55 54 56 57 57 56 56 56 55 56 55 55 55 54 55 54 53 53 52 53 52 51 53 53 51 51 52 53 52 52 52 52 51 51 50 48 50 52 52 48 49 53 56 57 60 63 64 63 64
61 61 59 59 57 56 56 55 55 54 54 54 54 55 54 55 55 56 56 55 54 54 55 54 54 54 54 55 53 54 53 51 52 51 51 50 50 49 50 51 51 51 51 52 51 52 51 50 48 48 49 46 47 49 50 52 54 56 59 62 63 65 64
61 61 59 59 58 57 56 55 54 54 54 55 54 54 54 54 54 54 55 54 55 55 55 55 57 54 54 55 54 53 53 52 53 53 51 53 54 51 50 51 53 51 51 51 51 52 53 53 51 50 49 49 45 42 46 47 50 53 55 58 62 64 63
62 60 60 59 58 59 58 57 56 55 56 55 55 54 54 55 54 54 55 54 54 55 54 54 54 55 53 54 53 53 53 55 54 52 51 52 52 50 50 50 52 51 51 52 52 51 51 51 51 50 49 47 46 43 43 43 44 48 53 57 57 61 63
61 61 60 59 59 58 58 57 57 56 56 56 57 56 55 54 55 54 54 54 54 53 54 54 54 53 53 54 54 52 53 52 54 52 51 52 50 50 50 50 51 50 50 51 51 51 51 50 51 51 50 50 48 46 44 44 41 45 48 55 55 56 61
62 62 61 60 59 59 58 58 56 57 57 58 58 58 57 56 56 58 54 54 53 53 54 54 53 53 53 53 51 52 53 52 52 51 52 52 52 52 51 50 50 51 50 50 51 50 50 51 51 51 50 50 49 46 47 46 43 44 47 49 54 54 57
62 62 62 62 60 60 60 59 59 59 58 56 57 57 56 57 56 55 55 54 54 53 53 54 54 53 53 52 52 52 52 51 51 51 52 53 53 53 52 51 50 51 50 50 50 51 51 51 51 52 50 50 50 48 47 46 45 45 49 51 49 53 55
60 61 62 62 61 61 61 60 59 58 58 58 57 57 57 57 56 55 55 55 54 53 54 54 54 54 53 54 53 54 52 51 51 51 53 52 54 51 51 50 50 51 50 50 50 50 50 51 51 51 50 51 49 50 50 48 47 48 47 51 50 53 55
59 60 61 60 61 62 61 61 60 60 58 58 57 57 57 57 57 57 56 56 56 54 54 53 53 54 54 52 53 53 51 52 52 51 52 53 54 51 51 51 51 52 50 50 50 51 52 51 51 52 50 49 50 50 50 49 48 48 48 46 49 52 54
61 59 60 60 60 59 60 60 60 59 59 59 58 59 58 58 58 57 57 57 57 56 55 56 54 54 55 53 52 55 54 52 52 51 51 52 52 52 49 49 51 52 50 50 49 52 51 51 52 52 51 51 49 50 49 50 46 46 47 48 50 53 53
59 58 58 58 59 59 58 59 60 60 60 59 59 60 59 59 58 58 58 58 58 57 58 57 55 55 54 54 54 53 54 52 52 52 51 51 51 50 50 49 50 51 52 50 50 48 49 51 51 51 49 49 49 48 48 48 47 45 45 46 46 51 51
57 57 57 56 58 58 59 58 61 61 61 60 59 58 58 58 58 58 58 57 56 55 55 55 54 55 56 55 55 55 53 53 52 52 53 52 51 51 50 49 50 49 50 50 50 48 48 49 49 49 49 48 48 48 47 47 46 46 44 44 43 49 50
57 57 57 56 58 59 59 58 58 60 59 59 59 58 57 56 57 58 58 57 57 57 57 56 56 56 56 56 57 56 55 54 53 52 53 53 54 52 51 51 49 49 48 50 50 48 47 47 48 48 47 48 48 47 47 46 45 45 44 43 43 43 46
56 57 57 57 58 59 58 58 58 57 58 58 58 58 58 58 58 57 57 57 58 57 57 57 57 57 58 56 56 56 55 55 54 53 52 52 53 52 52 51 50 49 49 49 48 47 46 46 46 46 46 46 46 45 44 44 44 43 43 41 42 42 42
55 55 56 56 57 57 57 57 58 58 57 57 57 57 57 58 57 58 58 58 58 58 58 58 59 59 59 58 57 56 55 54 54 54 53 53 52 52 52 52 50 50 50 49 48 47 45 45 46 44 45 44 44 43 43 42 43 43 41 42 40 40 41
55 55 55 56 56 57 55 56 56 56 56 56 56 56 57 57 56 56 58 58 59 57 57 57 58 59 58 57 56 56 55 54 54 53 53 52 52 52 52 52 51 50 51 49 48 46 47 47 45 44 43 43 42 42 41 41 41 41 41 41 40 38 39
54 55 56 56 57 57 56 55 55 57 56 56 57 56 57 56 56 56 56 56 56 56 55 56 56 56 56 57 57 56 55 55 55 54 53 52 51 52 52 52 51 50 52 53 50 50 50 50 49 48 45 41 41 42 40 38 39 39 39 40 39 39 38
55 56 56 57 57 56 56 56 56 55 56 56 56 55 55 56 56 55 55 54 54 54 55 56 56 53 54 58 58 58 56 55 56 55 53 52 51 52 52 51 52 55 53 51 49 46 45 47 49 49 47 46 44 41 42 42 40 39 40 39 38 38 39
54 55 56 56 55 55 55 54 54 54 54 53 54 54 53 54 54 54 55 55 54 55 56 57 51 47 47 50 57 57 57 56 56 56 55 53 52 51 50 51 52 53 52 50 48 45 45 45 44 44 45 46 47 45 41 41 38 38 41 40 38 37 37
51 51 51 52 52 53 53 52 52 51 52 52 53 52 52 54 54 52 53 52 53 54 54 52 48 46 46 46 50 57 56 56 56 55 55 55 54 53 52 51 51 52 50 50 49 47 45 44 43 43 42 43 42 43 44 43 41 39 37 38 38 38 36
51 50 50 51 51 51 52 52 51 51 52 54 53 52 53 52 52 51 52 52 52 53 53 50 46 46 45 44 44 50 55 56 56 55 55 55 55 54 52 51 51 51 52 53 52 48 47 45 43 42 42 42 42 41 40 40 42 45 41 38 39 37 37
50 49 49 49 49 49 49 51 50 49 51 51 51 51 51 52 52 51 52 52 52 50 51 49 45 45 45 43 43 44 54 54 54 54 54 53 53 53 53 52 51 50 50 52 51 48 46 44 43 41 40 39 40 42 41 40 39 39 40 42 40 40 40
49 48 47 47 46 46 46 47 48 48 48 48 47 51 51 50 51 50 49 49 48 50 52 48 44 43 43 42 42 42 51 52 52 51 52 52 51 52 52 52 52 51 50 50 50 48 45 44 43 43 41 41 40 39 39 39 39 39 39 39 37 38 38
47 47 47 46 48 48 46 48 51 49 44 46 47 47 47 47 47 48 49 49 48 49 47 45 45 43 42 41 41 47 49 49 49 49 49 49 49 49 50 50 49 50 50 49 46 45 46 45 44 42 40 37 37 38 38 42 41 40 40 38 39 39 38
48 47 46 48 48 50 50 51 50 47 48 44 45 45 46 47 46 47 46 47 49 46 43 40 42 41 41 41 44 48 47 47 47 47 48 48 48 50 51 50 49 49 45 41 39 38 40 43 39 37 37 37 38 37 37 40 41 41 40 40 40 40 39
50 47 46 49 47 47 45 45 46 47 52 50 48 45 45 45 43 44 46 47 48 48 41 41 41 41 42 44 46 47 47 47 47 47 47 48 46 44 45 50 47 44 41 39 38 39 39 41 39 39 40 38 36 35 36 36 38 39 40 40 40 39 39
46 46 47 45 44 45 45 47 46 45 45 45 47 43 44 44 42 39 41 45 50 45 38 42 42 41 42 44 47 47 47 47 46 46 45 42 42 41 42 44 44 43 42 40 39 39 39 40 38 38 38 36 35 34 34 33 33 34 35 35 36 37 37
45 45 46 45 43 45 43 45 46 47 46 44 45 41 41 39 39 39 40 42 45 41 40 39 41 41 42 43 45 47 47 47 45 45 45 45 42 42 42 41 41 39 38 38 38 38 38 39 37 35 33 33 35 34 33 33 35 34 33 34 33 33 35
48 45 44 45 44 45 44 46 45 46 48 44 43 41 39 39 39 38 38 38 38 39 41 40 39 40 41 42 43 44 44 44 43 43 44 43 42 40 40 39 38 39 38 38 38 38 38 38 39 36 33 33 33 35 37 33 35 39 33 33 34 34 34
47 50 45 46 48 46 44 45 45 44 44 45 44 38 38 38 38 37 38 37 37 37 42 43 40 41 41 41 42 43 44 44 45 46 44 41 40 38 37 36 37 38 38 38 37 37 38 38 38 36 34 36 36 36 35 36 35 34 33 33 31 32 32
47 50 49 47 47 45 44 44 44 43 44 45 43 38 38 37 37 36 36 36 35 36 37 40 41 40 40 41 41 41 41 41 40 43 42 40 39 38 37 36 37 39 37 37 37 37 38 37 38 36 37 36 36 36 36 34 33 33 32 31 32 31 32
45 45 45 45 44 44 44 43 43 43 43 44 40 38 37 38 37 36 35 35 36 36 36 37 40 41 40 40 40 39 39 39 40 41 41 40 38 37 36 36 39 37 37 38 38 37 37 37 35 37 37 37 36 37 34 32 32 32 32 30 30 30 31

ECMWFFLT1_sfc_temp_021.txt.gz
Temp
56 55 55 55 54 56 55 55 56 55 56 56 56 56 57 57 57 57 57 58 58 58 58 56 55 55 57 57 57 56 57 56 57 58 58 58 56 56 58 56 58 58 57 56 54 52 48 50 53 53 54 55 57 57 58 58 59 60 60 61 63 64 63
55 55 55 55 55 54 55 53 54 54 54 55 55 56 55 57 58 57 57 57 57 57 58 57 55 56 55 55 55 55 55 55 56 56 58 57 55 56 57 57 57 57 55 55 55 53 49 47 48 48 51 52 52 54 56 59 60 60 60 60 62 63 62
56 54 54 54 53 53 53 52 53 53 54 54 54 54 55 56 56 57 57 57 56 57 57 55 54 54 54 54 53 54 54 54 53 55 55 54 55 56 57 57 56 55 53 51 51 51 52 51 50 52 51 50 51 52 53 57 59 60 61 60 61 63 62
56 55 55 53 53 53 53 52 52 52 52 53 55 54 54 55 55 57 56 56 57 58 56 55 54 54 52 53 53 53 53 53 52 52 53 52 53 52 53 54 53 52 51 51 52 51 50 49 49 50 47 51 52 51 56 54 58 60 62 61 61 61 61
58 57 56 54 53 52 51 52 52 52 52 53 52 53 53 54 55 54 55 54 55 53 53 54 53 53 53 53 53 53 52 51 52 53 52 52 52 51 51 50 51 51 51 51 50 49 50 49 48 48 48 47 48 48 53 50 54 58 59 60 61 61 61
60 59 57 55 53 53 51 51 51 52 51 53 53 54 53 53 54 55 54 54 53 54 52 52 51 52 52 52 52 51 50 50 49 51 50 48 50 51 49 48 49 51 50 48 49 49 48 47 47 44 48 47 49 48 47 50 53 51 57 59 60 61 60
59 59 58 57 54 53 53 52 51 52 52 52 52 53 52 53 54 54 54 52 52 52 52 52 52 52 52 52 52 52 51 49 50 50 50 49 49 48 49 50 50 50 48 49 48 50 47 48 47 47 47 44 45 47 45 49 51 54 55 56 58 61 60
59 58 58 57 55 53 52 52 52 51 51 51 51 52 52 52 51 51 52 52 52 52 52 53 54 52 52 53 53 52 51 50 51 51 49 51 51 49 48 50 51 48 48 48 50 50 50 51 49 48 46 46 43 40 45 44 46 51 51 52 56 60 59
60 59 57 57 55 54 53 53 52 51 51 52 51 52 52 52 52 52 52 51 51 52 52 52 52 52 51 52 51 52 52 53 52 51 49 50 49 48 48 47 50 48 47 48 49 48 49 49 50 47 47 45 44 42 41 43 43 47 48 53 52 57 59
59 58 58 57 56 54 53 53 53 53 52 52 52 52 51 52 52 51 52 51 51 51 51 51 51 50 50 52 52 50 51 49 52 50 49 50 48 48 48 49 49 49 48 48 48 50 49 47 48 47 47 47 44 42 41 41 41 44 49 50 53 53 57
59 59 59 58 56 55 53 53 53 53 53 53 53 54 52 51 52 56 51 51 50 51 52 50 51 51 51 50 51 51 49 49 50 49 49 49 48 49 49 48 49 50 49 49 49 48 49 48 48 49 48 47 47 47 43 42 43 41 47 46 49 52 55
59 59 59 59 58 57 55 54 53 54 53 53 54 53 53 52 52 52 53 51 51 52 51 52 51 51 51 51 50 51 48 49 50 49 49 50 50 51 48 48 48 49 48 50 50 51 50 49 48 47 47 48 48 45 44 43 43 43 47 49 48 48 51
60 60 59 59 58 58 58 56 54 53 54 54 52 52 51 52 52 51 52 53 52 52 52 52 51 51 51 52 52 52 49 49 50 49 50 49 51 49 48 48 48 48 48 49 50 50 49 50 49 48 48 48 47 46 43 44 45 47 45 49 48 49 51
58 59 57 57 58 58 58 58 58 57 55 54 53 53 53 52 52 51 51 52 51 51 51 51 51 51 51 50 50 51 49 50 51 48 49 50 49 48 48 48 49 50 48 49 47 49 50 49 50 49 48 47 48 47 47 44 45 45 44 44 47 49 51
59 59 58 57 58 59 59 58 58 56 55 56 54 55 54 53 52 52 51 52 52 52 52 52 50 51 51 50 49 51 51 49 50 49 48 49 48 49 47 47 49 49 47 48 47 49 49 49 50 50 48 48 46 47 46 47 44 44 43 44 45 48 49
58 58 58 57 59 59 57 57 58 57 56 55 54 54 55 55 55 53 52 52 52 52 52 51 50 50 51 50 50 49 51 50 50 49 49 49 48 47 47 48 48 48 48 48 46 46 47 48 49 48 47 47 47 45 46 46 46 43 42 43 42 46 46
57 57 57 57 58 58 57 57 58 58 58 56 55 54 54 55 55 55 54 53 53 53 52 52 52 51 51 50 51 51 50 50 50 50 51 49 48 49 49 47 48 47 47 47 46 46 46 46 47 47 46 45 46 45 44 45 44 43 41 42 41 43 45
57 57 58 57 58 58 57 57 58 59 58 57 57 56 56 55 55 56 56 56 55 54 54 53 53 52 52 51 52 51 51 50 49 49 50 50 52 51 50 50 49 47 47 47 45 46 45 46 46 46 46 45 45 44 44 44 43 43 42 41 41 38 41
56 57 57 57 57 57 58 59 59 58 57 57 56 57 57 56 57 57 57 57 57 56 54 54 54 54 54 53 52 51 51 51 51 50 50 50 51 51 51 50 49 49 49 50 47 45 44 45 44 44 44 44 43 43 43 42 41 41 41 40 40 40 38
53 53 54 55 56 56 57 57 58 57 55 56 56 55 55 55 55 55 55 55 55 55 54 54 54 55 55 53 52 52 52 51 51 51 51 52 52 51 51 50 49 49 50 49 48 46 45 44 45 44 45 44 43 42 43 43 42 41 39 39 37 38 39
52 52 53 54 55 56 55 54 54 54 55 56 56 56 55 56 55 55 56 56 56 56 56 55 55 56 55 54 53 52 53 53 52 52 52 53 52 52 51 51 50 50 51 50 49 47 48 46 44 44 43 43 42 42 41 40 40 39 38 37 39 38 36
53 54 55 56 55 55 55 55 54 54 55 54 54 54 54 54 54 55 55 55 56 56 55 56 57 57 56 55 54 54 54 54 54 53 52 52 52 52 51 51 50 50 52 53 52 50 50 49 48 46 43 42 41 41 39 39 39 39 38 38 39 37 37
53 54 54 55 56 55 55 54 53 54 55 56 55 54 54 55 55 55 55 55 55 55 55 56 56 53 53 56 55 56 55 55 54 53 53 52 51 51 52 51 53 55 53 53 49 46 45 47 49 49 47 44 43 40 41 39 38 38 39 40 39 38 38
53 54 55 55 55 55 54 54 54 54 54 54 53 54 54 55 54 54 55 55 55 54 54 56 51 47 46 48 55 54 54 54 54 54 54 53 52 52 52 53 53 54 53 51 49 45 44 44 44 44 45 46 46 44 40 39 38 37 41 39 36 38 37
53 54 54 54 54 53 53 53 53 53 51 51 51 53 52 53 54 53 53 53 53 53 53 51 47 46 45 44 47 53 54 54 54 54 54 54 54 54 53 52 50 51 50 51 51 49 47 44 43 43 42 43 43 44 44 43 40 37 36 38 37 37 36
51 50 51 52 50 49 51 51 50 50 51 52 50 51 53 51 52 51 52 53 52 53 52 49 46 45 44 44 43 47 53 53 53 53 53 53 53 52 51 50 50 50 52 54 53 51 50 48 44 43 42 43 42 42 40 40 41 41 38 37 38 36 35
48 48 47 47 47 47 47 50 48 48 48 48 51 51 50 51 51 50 51 51 51 50 50 48 45 44 44 43 42 43 50 51 51 51 52 52 52 51 51 52 51 50 49 51 51 50 50 48 46 44 42 39 38 40 40 41 40 39 40 39 38 37 36
47 45 45 45 45 44 45 44 46 44 46 46 47 47 47 47 48 48 48 48 47 48 50 47 43 42 41 41 41 42 46 48 49 49 49 49 49 49 50 52 52 51 50 49 50 48 48 47 45 43 41 40 38 37 37 37 37 36 38 36 36 36 36
44 44 44 43 44 44 44 45 46 45 43 42 41 42 42 43 44 44 44 43 44 46 45 43 40 40 40 41 41 43 45 46 45 45 45 45 46 48 49 50 49 49 49 48 44 43 45 45 43 41 38 36 36 36 37 40 40 40 39 36 35 35 35
45 44 44 45 44 43 44 46 44 42 42 40 42 43 43 45 44 44 43 44 44 45 43 41 41 41 41 41 42 43 43 44 44 43 42 43 44 45 46 48 48 46 44 43 40 40 40 42 42 39 37 35 35 35 35 37 39 39 39 40 40 40 39
47 45 44 47 45 44 43 42 41 43 45 42 42 41 41 41 39 39 41 42 43 43 42 41 42 40 40 40 44 44 44 44 43 43 41 40 40 42 45 50 47 44 43 42 38 39 39 43 42 39 36 34 34 33 34 33 35 36 39 39 39 39 38
46 45 46 45 44 44 44 46 43 40 40 41 40 39 41 42 38 37 37 40 47 43 38 39 42 39 39 41 44 44 45 44 42 40 40 38 38 39 40 44 45 43 43 41 38 39 39 41 39 37 35 33 33 32 33 32 32 33 33 34 33 35 36
43 43 44 44 43 43 42 43 44 43 39 40 40 38 38 38 38 36 36 36 38 37 37 37 39 41 41 42 44 45 45 45 42 39 38 40 39 38 39 40 40 39 38 38 38 38 38 39 38 34 33 32 32 36 33 32 35 34 31 32 31 31 33
44 43 42 44 43 44 42 43 41 42 42 39 37 37 37 36 36 35 35 35 34 36 39 37 38 41 41 42 43 44 43 44 41 40 40 40 39 39 39 39 39 39 38 38 38 38 38 38 38 34 32 32 34 36 34 31 32 39 32 32 32 32 33
46 46 43 45 48 48 43 41 41 41 41 41 39 36 35 35 34 34 34 34 35 34 39 42 37 40 40 41 42 42 42 42 43 42 40 39 39 39 40 40 39 38 37 37 37 37 38 38 39 38 34 37 36 36 34 35 32 32 31 31 30 31 32
48 48 46 44 45 45 42 41 40 39 39 39 37 36 35 34 34 33 33 34 33 34 34 38 40 38 40 40 40 41 41 41 41 42 40 38 38 38 38 37 38 38 37 37 37 37 37 37 38 36 37 36 36 36 36 33 32 32 31 31 32 31 31
47 46 45 43 43 43 42 40 39 41 38 39 37 36 34 35 34 33 33 34 35 34 34 34 39 39 39 39 39 39 39 39 39 40 41 39 38 37 36 35 37 36 37 37 37 37 36 36 34 36 37 37 37 37 33 32 31 32 31 30 30 30 30

ECMWFFLT1_sfc_temp_024.txt.gz
Temp
56 54 53 53 53 55 54 54 55 54 54 55 55 56 57 57 57 57 59 59 59 59 61 60 59 58 58 58 58 58 58 58 59 59 58 59 57 57 59 58 58 58 57 56 55 55 53 55 56 56 57 57 58 57 58 58 59 60 61 61 63 62 60
54 54 54 55 54 54 54 53 54 54 54 54 55 55 56 58 59 57 57 58 58 58 59 57 56 57 57 57 57 57 56 56 58 58 59 58 57 57 58 58 58 57 55 55 55 55 53 51 51 52 56 56 58 59 59 60 61 61 61 61 63 64 62
55 54 53 53 52 53 53 52 52 53 53 54 54 54 55 56 57 57 57 57 57 58 58 55 55 55 55 55 55 55 55 56 56 58 59 58 57 58 60 59 57 56 56 56 56 54 55 55 54 55 53 55 55 57 58 58 60 61 62 61 61 62 62
54 54 53 52 52 53 53 52 52 52 52 53 54 54 54 55 56 58 56 56 57 58 56 55 54 54 54 54 54 54 54 54 54 54 55 55 56 56 56 57 57 55 56 56 55 54 54 53 53 53 53 54 56 56 57 57 59 61 62 61 61 61 61
56 56 55 53 52 52 51 52 51 53 52 52 52 54 54 55 56 55 56 55 55 54 54 53 53 53 53 53 53 54 53 53 54 54 53 53 53 53 52 53 53 53 54 55 53 53 55 53 52 51 52 52 55 55 55 54 59 60 61 61 62 61 61
56 56 54 53 52 52 51 51 52 51 52 54 52 54 54 53 54 54 54 54 53 54 53 53 52 53 53 53 53 52 52 52 52 53 52 51 53 53 52 52 53 54 53 51 52 52 50 50 51 49 51 50 53 54 54 54 56 57 60 61 62 62 62
57 57 56 56 53 53 52 52 52 52 52 51 52 52 51 52 52 53 53 52 52 52 53 52 52 53 53 54 53 53 52 51 52 52 52 51 51 51 52 53 53 52 51 51 51 51 51 53 51 52 49 49 48 51 52 54 56 58 59 60 62 62 61
57 57 57 58 54 53 51 51 50 49 51 51 50 52 52 51 51 52 52 51 52 52 53 53 54 53 53 54 53 52 52 52 52 52 52 53 53 52 52 53 52 52 51 51 53 53 54 54 52 50 49 52 50 48 51 52 51 55 55 58 60 61 60
59 59 58 57 55 53 51 52 51 50 50 50 51 51 51 52 51 51 52 51 51 51 52 52 52 52 52 53 52 52 53 54 52 52 51 51 51 51 51 51 53 52 51 52 53 52 53 52 52 50 50 49 50 51 47 50 51 54 54 57 58 59 59
59 59 59 56 54 53 52 52 53 51 51 51 53 53 51 50 50 51 51 50 51 51 51 51 51 51 52 53 52 52 52 52 53 51 51 51 50 50 51 52 52 52 52 52 53 52 52 51 51 51 53 53 49 50 46 48 49 49 55 53 54 57 58
58 58 58 56 55 54 53 53 52 53 52 53 53 55 52 51 51 54 50 50 50 51 51 51 51 50 51 51 51 51 51 52 52 51 51 51 50 51 51 51 52 52 51 52 52 51 52 52 52 53 52 51 53 53 48 49 50 48 53 53 53 54 56
57 58 57 57 56 56 55 54 53 53 52 52 54 53 52 52 52 51 51 51 51 51 50 51 51 51 51 51 52 51 50 52 52 51 51 52 52 53 52 51 51 51 51 52 51 51 51 52 51 52 51 52 51 52 51 49 50 51 51 52 53 54 54
58 59 58 57 57 57 57 56 55 53 53 54 52 51 51 52 52 52 51 51 51 51 52 51 51 51 51 51 51 51 51 51 52 52 51 52 53 51 52 52 52 52 51 52 52 51 51 51 51 52 52 52 50 49 51 50 50 52 51 52 52 53 54
57 57 56 56 57 56 55 56 56 57 55 54 52 52 52 52 51 51 51 53 51 52 52 51 51 51 51 51 51 51 50 52 52 51 52 51 51 51 52 52 51 51 51 52 51 51 52 51 51 51 51 52 52 51 52 50 50 50 51 49 51 51 52
57 57 57 56 56 56 57 57 56 56 56 54 53 53 52 52 52 51 52 52 51 51 51 51 51 51 51 51 51 52 50 51 51 51 51 51 51 52 51 52 51 50 50 52 51 53 52 52 52 52 51 51 51 51 50 50 50 49 49 49 50 51 51
56 56 56 56 56 58 57 56 56 56 55 54 54 54 54 53 53 52 52 52 52 51 52 52 51 52 51 52 52 51 51 51 51 51 52 51 51 50 51 52 52 51 50 51 50 50 50 51 52 52 50 50 50 49 50 51 49 47 48 49 47 50 49
56 56 56 56 57 57 57 55 55 56 56 56 56 56 56 55 54 53 53 53 52 53 52 52 52 52 53 52 53 52 52 52 51 51 52 51 51 51 51 51 51 50 50 50 49 49 49 49 50 50 49 49 49 48 48 48 50 49 47 48 48 49 49
55 55 56 56 56 56 56 54 54 56 55 56 57 56 56 56 55 54 54 55 55 53 53 53 53 53 53 52 53 53 52 52 52 52 52 52 52 52 51 53 52 50 50 51 49 49 49 49 49 49 49 49 49 48 47 47 47 48 47 47 47 46 46
54 55 56 56 56 57 56 55 55 55 56 57 56 56 56 55 56 55 55 55 55 54 53 53 54 54 54 53 53 53 53 53 53 53 53 52 53 52 53 52 52 51 51 52 50 49 48 48 48 49 49 48 48 47 46 46 46 46 47 46 46 47 46
54 55 55 55 55 56 56 56 56 56 56 57 56 55 55 55 55 55 54 54 55 55 55 54 54 54 54 54 53 54 53 53 53 53 53 53 53 53 53 53 52 52 52 52 51 50 48 48 49 49 49 48 47 47 46 46 46 46 46 47 45 44 45
54 53 54 54 54 54 54 55 55 55 56 56 56 56 56 56 55 55 55 55 56 56 56 55 55 55 55 55 54 53 53 53 54 53 53 53 53 53 53 53 53 53 54 53 53 51 50 50 49 49 48 48 46 46 46 45 45 45 46 45 45 46 44
52 52 53 53 53 53 53 53 54 54 55 54 55 55 55 55 55 54 55 55 56 55 55 55 56 56 55 55 55 54 54 54 54 54 54 54 53 53 53 53 53 52 53 54 51 51 51 51 50 49 48 48 46 45 45 45 45 44 44 45 46 43 43
52 52 52 53 53 53 53 53 53 53 55 54 54 53 55 56 55 55 54 54 55 55 55 55 55 52 52 56 55 56 54 55 55 54 54 53 53 52 53 53 53 54 52 52 50 47 46 47 50 52 50 48 48 46 46 45 45 45 46 46 46 45 46
51 52 52 52 52 53 53 54 53 53 54 54 54 54 53 54 53 53 54 54 54 53 55 56 50 47 46 47 55 55 55 54 54 54 53 53 53 53 53 54 54 54 53 52 51 45 45 44 45 46 46 47 48 49 47 46 45 44 47 47 44 44 44
51 52 52 53 52 53 52 52 52 52 52 51 52 53 52 54 53 53 53 53 53 53 53 51 47 46 45 44 47 54 54 54 54 54 54 54 54 54 54 53 52 53 53 53 53 49 46 43 43 43 42 42 42 41 43 46 46 44 44 46 44 44 43
52 51 52 53 52 51 52 52 51 51 51 52 53 54 54 52 51 52 52 52 52 53 53 49 46 45 44 43 42 46 53 53 53 54 53 54 54 54 54 53 53 52 53 53 53 51 51 48 43 42 42 42 41 39 38 38 42 46 44 45 45 43 42
50 50 50 50 50 50 50 51 50 51 51 51 52 51 50 50 51 51 51 52 52 51 52 48 44 43 42 41 40 43 51 51 51 52 53 53 54 53 53 54 53 52 52 53 52 51 51 50 48 47 46 45 45 43 40 39 38 38 42 45 44 45 43
49 48 47 47 47 48 49 47 48 48 49 50 50 50 49 49 49 49 49 50 50 50 51 46 43 41 40 40 40 41 48 49 50 50 50 50 51 52 52 52 52 52 51 51 51 50 50 49 47 45 44 43 42 42 42 43 43 43 43 42 44 43 42
47 46 46 45 46 45 44 45 45 45 45 45 45 47 47 48 47 48 47 47 47 49 46 40 39 39 39 38 39 45 46 47 47 48 48 48 49 49 50 51 50 50 50 50 46 43 46 49 47 45 42 41 41 41 41 41 40 41 43 43 43 43 43
44 44 43 44 44 43 44 44 44 44 45 44 45 45 45 44 43 43 43 44 45 44 42 40 39 40 39 38 42 45 46 45 45 44 43 43 44 47 48 49 49 49 48 47 42 40 42 45 46 44 42 40 40 41 40 41 40 39 38 39 38 39 38
46 45 45 46 45 45 44 45 46 45 47 44 45 45 43 41 39 40 42 41 42 41 42 40 41 39 40 38 43 46 46 45 43 42 42 41 42 44 48 49 47 46 45 45 39 39 40 45 45 43 43 42 41 40 41 39 39 39 38 39 39 38 38
47 47 47 47 47 47 47 48 45 43 44 45 45 43 43 41 38 38 38 41 45 41 40 41 41 39 39 39 44 45 46 45 43 41 41 40 40 41 42 44 45 44 44 41 38 39 39 43 43 43 42 42 41 40 40 38 39 39 39 40 38 39 39
47 48 47 45 46 46 45 44 44 44 43 46 44 41 41 40 39 37 37 38 40 39 40 40 40 40 40 39 42 45 46 46 43 41 41 42 41 41 42 43 42 38 38 38 38 38 39 41 43 41 41 41 39 40 39 37 40 39 38 37 37 37 37
47 47 47 48 46 44 43 43 42 42 41 40 40 38 38 39 39 37 37 37 37 39 42 40 39 39 40 40 41 43 46 45 43 42 42 41 42 41 41 42 42 39 38 38 38 38 38 38 38 39 40 40 40 41 37 38 38 38 37 38 38 37 37
45 46 45 45 46 45 43 43 43 42 41 40 39 38 37 38 37 36 36 37 38 36 40 42 39 40 40 41 41 42 45 44 44 43 41 41 41 41 41 42 41 39 38 38 38 38 38 38 39 41 39 36 35 35 39 39 37 37 36 36 37 37 37
47 47 45 46 47 45 43 43 42 42 42 40 39 39 37 37 38 37 36 36 35 36 35 40 40 40 39 40 40 40 40 42 40 44 43 41 42 41 42 41 41 39 38 37 37 37 37 37 38 38 36 35 35 36 37 38 37 36 37 36 36 36 36
46 45 45 44 45 44 43 42 42 42 42 42 40 39 37 37 37 39 37 36 36 36 36 36 39 39 39 38 39 39 39 39 39 42 43 42 42 41 41 41 40 37 37 37 37 37 37 37 37 36 36 35 35 36 38 37 36 36 35 35 35 35 35

ECMWFFLT1_sfc_temp_027.txt.gz
Temp
69 66 66 66 66 67 67 67 68 68 69 69 69 70 70 70 69 67 68 69 69 70 70 69 67 67 68 68 69 70 70 70 68 67 67 66 66 63 63 63 63 66 68 68 70 69 65 60 62 67 68 67 67 67 69 69 69 68 68 71 74 73 72
68 67 67 67 66 67 66 66 67 68 68 67 69 68 69 70 70 70 70 70 70 70 71 71 69 69 68 67 67 69 69 68 69 68 66 66 68 66 65 65 68 69 68 68 68 71 67 64 63 63 63 66 66 67 68 69 70 69 69 70 72 73 71
66 66 67 66 66 67 66 65 66 67 67 67 67 68 68 69 69 69 69 69 69 69 70 70 68 68 68 68 68 69 68 66 66 67 66 66 68 68 69 68 68 67 68 68 69 69 69 69 64 65 65 64 61 64 67 68 69 71 72 71 71 73 72
66 66 65 65 66 67 67 66 67 67 67 67 67 67 66 67 67 68 68 68 68 68 69 69 69 69 68 67 67 67 68 67 66 64 64 65 66 67 68 69 69 69 68 67 67 69 68 66 65 64 66 68 64 61 64 68 70 72 73 71 71 70 71
66 67 66 65 66 66 67 66 66 67 67 67 67 67 66 66 67 67 67 67 68 68 68 68 68 68 68 68 68 68 67 68 67 65 64 64 65 67 67 69 69 69 70 70 70 70 70 68 67 65 65 67 68 67 68 67 71 71 71 71 72 71 71
67 67 67 66 66 67 67 67 67 68 67 67 67 66 65 65 67 67 67 68 68 67 66 67 66 66 67 68 67 67 67 67 67 67 67 66 67 67 67 68 70 70 69 69 70 69 69 70 69 65 66 69 64 65 68 69 67 70 71 71 72 71 71
67 67 67 66 66 67 67 66 67 68 68 66 66 65 65 66 66 65 66 66 66 65 65 65 65 66 67 69 68 67 66 66 66 66 65 65 65 66 68 68 68 68 68 68 69 69 68 68 68 65 63 65 66 66 69 69 70 69 68 70 71 71 70
66 67 67 66 65 65 65 65 64 66 68 67 67 65 66 65 65 66 65 66 65 65 65 65 65 65 65 68 68 65 65 66 66 66 66 65 65 66 66 67 66 67 67 69 69 69 71 69 69 67 66 61 62 65 64 68 68 66 66 68 70 70 69
68 68 67 64 65 65 65 67 66 66 67 67 66 66 65 66 66 65 66 65 65 65 65 65 65 66 65 66 67 65 64 66 65 65 65 65 64 64 65 66 67 67 67 69 69 68 70 69 68 68 69 68 63 60 63 63 65 63 67 67 68 68 69
66 66 65 64 64 65 65 66 67 66 66 67 66 66 66 66 66 66 66 65 65 65 65 65 65 65 65 66 66 65 64 65 66 65 65 65 65 65 66 66 67 67 67 67 68 68 68 68 69 69 71 69 69 65 61 60 61 62 64 66 65 66 68
66 66 65 64 64 64 64 65 65 65 66 66 67 66 67 66 66 66 67 66 65 66 65 66 66 66 66 66 65 65 65 65 65 65 65 66 65 66 65 66 67 67 67 68 67 67 67 68 68 69 69 69 71 68 65 63 59 63 62 64 65 65 66
66 66 65 65 64 64 63 64 64 64 64 65 66 66 67 67 67 66 67 67 66 66 66 66 66 66 67 66 66 66 65 67 66 65 65 65 65 66 65 64 66 66 66 66 66 66 67 68 68 69 68 69 68 68 67 66 61 61 64 61 62 65 65
67 67 66 65 65 66 66 65 64 63 64 67 67 67 68 68 67 66 67 67 66 67 66 66 67 67 67 66 66 67 66 67 67 66 66 66 67 66 66 65 66 66 66 68 67 66 66 66 67 68 68 68 67 67 67 66 63 59 62 62 62 64 64
65 67 66 66 67 67 66 65 65 66 66 65 67 66 66 67 68 68 68 68 68 67 67 66 67 67 67 66 66 66 67 68 67 67 66 65 66 67 67 67 66 65 66 67 66 66 67 67 67 67 67 68 66 66 66 65 63 60 60 62 62 63 63
66 67 66 65 66 67 67 66 65 65 64 64 65 67 69 67 68 68 68 68 68 68 68 68 67 68 68 66 65 65 66 67 67 66 66 66 66 66 66 67 66 65 66 67 66 69 68 68 69 68 67 67 67 65 66 66 64 62 58 60 61 64 63
66 66 66 66 66 67 66 66 66 65 65 64 64 66 68 67 67 67 67 67 68 67 67 67 66 67 67 67 67 66 65 66 66 66 66 66 68 67 66 66 65 65 64 65 65 66 66 67 69 68 65 66 65 64 66 67 64 61 60 59 61 62 61
65 65 66 67 66 67 67 66 66 67 67 66 63 63 66 68 67 67 67 67 67 67 67 66 66 67 67 67 67 67 66 66 66 67 67 67 68 66 67 65 65 65 65 64 64 64 65 65 65 66 64 64 63 63 63 63 65 63 62 60 59 63 62
65 65 65 67 66 67 66 65 64 66 66 65 64 62 63 66 67 68 66 67 67 67 67 67 67 66 65 66 66 66 66 67 66 67 67 67 64 67 66 66 66 66 65 64 63 64 64 63 66 65 65 65 65 63 62 63 64 64 62 60 58 60 61
64 65 66 66 66 67 66 65 64 64 66 66 66 66 65 66 67 66 68 69 69 68 68 68 68 68 67 66 65 65 66 65 66 66 66 66 67 67 66 67 67 66 65 65 64 64 64 63 64 64 64 65 65 63 61 61 62 62 62 61 61 59 59
65 65 65 66 66 67 66 65 66 66 66 67 67 66 66 66 66 66 67 68 68 68 67 67 67 66 67 67 66 66 64 65 64 65 65 66 66 67 67 67 66 65 65 65 64 63 63 62 62 62 62 61 63 62 61 62 63 62 61 61 60 59 60
65 65 65 66 66 66 66 65 66 67 67 66 66 67 66 66 65 66 67 67 67 67 67 67 67 67 67 67 66 65 65 65 65 65 65 65 65 65 65 66 65 64 64 63 63 64 62 62 62 61 60 60 60 60 60 60 60 61 61 60 60 60 60
64 65 64 65 64 65 65 66 66 66 65 66 65 66 65 64 64 66 66 64 65 66 65 65 66 66 66 65 65 64 64 65 64 65 65 66 65 65 65 65 65 63 60 58 55 56 56 57 62 61 60 60 60 59 59 60 61 61 61 60 60 60 60
64 64 64 64 65 65 66 65 65 65 65 66 66 66 65 63 63 65 64 64 65 64 63 63 59 52 56 63 63 64 63 63 65 65 65 65 65 64 65 64 63 58 54 53 51 47 47 49 53 61 62 61 60 60 60 60 60 61 60 59 59 58 58
63 63 64 64 64 65 65 65 65 66 65 64 64 63 63 62 62 63 65 64 64 64 63 62 50 46 45 48 60 62 61 61 64 64 64 64 65 65 65 66 65 59 55 53 54 45 45 45 46 48 50 52 56 62 61 59 60 60 58 57 57 57 57
63 63 63 64 64 65 64 63 63 64 63 62 63 64 63 65 63 62 62 62 62 63 63 54 46 45 44 44 48 59 62 63 63 64 64 65 65 65 65 65 64 63 62 62 63 59 50 44 43 44 44 43 40 39 43 57 59 57 57 57 55 55 56
63 63 64 64 64 63 63 62 62 61 60 60 60 62 64 63 62 60 60 60 60 61 61 51 45 45 43 43 41 50 63 63 62 63 64 64 64 65 65 64 63 62 63 56 59 62 59 53 43 41 41 41 41 41 39 39 43 54 56 54 54 56 56
63 63 62 63 63 63 62 62 61 62 61 60 59 60 60 58 59 60 61 62 62 62 61 49 44 44 43 41 40 45 63 63 63 64 64 64 64 64 64 63 64 63 63 61 61 60 59 56 53 53 55 57 55 47 41 39 39 41 49 56 56 56 55
61 62 62 62 62 62 62 61 61 61 58 59 59 60 60 60 59 60 61 61 62 61 61 42 41 40 40 40 39 42 59 62 63 63 63 64 63 63 64 62 62 63 62 61 62 59 59 58 58 56 56 55 54 53 51 52 54 55 54 55 56 55 53
60 60 60 60 61 61 61 60 60 59 59 60 61 61 60 60 59 59 59 59 59 60 55 39 39 39 39 39 39 53 60 61 63 63 61 60 61 62 62 62 62 62 62 61 52 46 53 60 58 56 54 53 53 52 49 43 40 42 49 54 54 54 54
59 59 60 60 61 61 61 60 61 61 60 60 60 60 60 59 59 58 54 54 57 57 55 43 38 40 39 37 45 61 61 63 62 60 58 59 60 60 60 61 62 62 60 59 45 42 45 51 58 56 54 52 50 48 46 45 41 39 38 38 37 37 36
55 56 57 59 61 60 60 61 60 59 61 60 60 61 60 59 58 57 55 54 56 59 59 46 39 40 38 38 49 62 64 63 60 59 57 57 59 59 54 48 55 60 58 55 40 41 43 54 58 54 51 48 47 46 47 49 50 47 38 38 37 37 37
57 56 55 55 55 57 59 60 59 59 62 63 61 60 60 59 56 56 55 54 47 55 58 49 39 39 37 38 49 63 64 63 59 58 58 56 57 58 55 50 45 51 53 46 38 41 43 52 57 55 54 53 52 51 50 51 50 50 51 50 50 49 46
58 57 57 56 55 57 59 59 58 58 60 63 61 60 59 59 57 55 53 54 53 55 57 55 48 38 40 38 43 61 64 62 59 57 58 58 57 56 56 54 47 38 38 38 39 39 41 46 55 55 54 53 52 49 50 50 49 51 50 49 50 49 49
59 59 58 55 54 54 55 56 54 54 56 59 59 57 56 57 57 55 54 54 54 53 53 55 49 39 39 40 41 48 63 62 60 59 58 58 58 56 56 55 53 40 38 38 38 38 39 41 44 55 54 53 50 47 47 50 45 42 49 48 49 49 50
58 59 59 56 55 57 56 55 54 55 55 56 56 55 54 54 54 53 53 53 53 53 50 46 54 40 39 40 41 43 59 60 60 59 57 57 57 56 55 54 52 42 38 38 38 38 39 40 41 50 44 37 35 38 49 49 50 50 50 50 50 49 49
58 58 59 58 57 57 57 56 56 56 56 55 54 53 52 51 50 48 50 52 54 53 53 52 42 48 39 40 39 42 45 51 44 59 59 56 55 54 54 51 47 38 38 38 38 38 39 39 42 43 36 36 36 36 42 50 49 49 49 48 47 47 47
58 58 58 58 57 57 56 56 56 57 57 56 55 54 55 55 56 54 54 54 53 54 53 55 45 41 45 38 39 39 40 41 44 58 58 57 55 54 53 51 46 37 38 38 37 38 39 40 42 35 36 35 36 40 49 49 48 47 45 46 46 46 46

ECMWFFLT1_sfc_temp_030.txt.gz
Temp
75 73 74 75 76 77 76 76 77 77 78 78 77 78 78 78 77 76 76 76 77 77 77 76 75 76 76 76 75 76 75 75 74 71 71 71 69 70 71 71 71 72 72 70 67 60 68 65 68 74 74 73 74 74 75 75 75 75 75 77 80 79 78
76 75 76 76 75 75 74 75 76 78 77 77 78 77 77 78 77 76 76 76 76 77 78 77 76 76 74 74 74 73 73 74 74 73 72 71 72 71 70 71 72 72 73 69 70 71 70 66 68 68 67 71 72 73 74 75 76 75 76 77 78 79 77
75 75 76 74 74 75 73 73 74 75 77 76 76 77 76 78 77 77 77 76 75 76 76 76 76 75 74 74 74 74 73 72 72 72 72 73 73 73 74 73 70 70 71 72 73 73 74 72 68 68 69 68 66 69 73 73 75 76 78 77 77 79 78
74 73 73 72 74 74 73 73 74 75 76 76 76 75 75 76 75 76 75 76 76 76 76 76 75 76 75 74 74 73 73 72 71 71 71 72 71 71 72 72 68 69 67 68 71 72 72 71 69 69 72 74 70 66 70 75 76 78 79 77 77 77 77
73 73 72 72 73 73 73 73 74 74 74 75 75 75 74 75 75 75 75 75 75 75 75 76 76 77 76 76 75 73 73 72 71 70 70 70 71 71 71 72 72 73 73 72 75 74 74 73 72 70 71 73 74 74 74 73 77 77 78 79 79 78 77
74 75 74 73 74 74 74 74 74 74 74 74 74 74 73 74 75 74 75 75 74 74 74 75 75 75 76 76 75 73 73 73 73 72 72 71 72 72 73 75 76 76 75 76 76 76 75 75 73 70 73 76 70 71 74 75 74 78 79 78 79 79 79
75 75 75 74 74 75 75 74 74 74 74 73 73 73 74 75 74 74 73 73 74 74 74 74 74 75 76 77 75 74 73 73 73 72 72 72 73 73 75 75 75 76 75 76 76 76 75 73 73 72 72 73 72 73 76 76 76 75 75 78 79 78 77
76 76 76 76 75 74 75 74 74 75 74 74 74 73 74 73 73 73 73 73 73 73 73 73 74 74 74 76 76 73 74 74 74 74 73 73 72 73 73 74 74 75 76 78 77 78 79 77 76 74 73 68 68 72 71 76 75 73 73 75 78 77 76
77 76 76 75 75 74 74 74 74 74 75 75 74 74 74 74 73 73 73 73 73 73 74 74 74 75 74 74 74 73 72 75 72 72 73 72 71 71 72 74 75 75 75 77 78 76 78 77 77 76 75 73 69 66 70 69 71 71 75 74 75 76 76
75 75 74 73 73 73 74 74 74 74 74 74 74 74 73 74 74 74 73 73 73 73 73 73 73 74 74 74 73 72 72 73 73 72 72 72 72 73 72 72 74 74 74 74 75 75 75 76 77 77 78 75 74 70 67 66 67 68 71 75 73 73 75
75 74 73 72 73 73 74 74 74 73 74 74 74 74 74 73 73 74 73 73 73 73 73 74 75 74 73 74 73 73 73 73 72 72 72 73 72 73 73 74 74 74 74 74 73 74 74 75 76 76 77 77 77 74 71 68 66 70 69 71 73 73 74
74 74 74 74 73 73 73 74 73 74 74 74 74 73 73 74 74 74 74 74 73 73 73 73 73 73 74 73 72 73 72 73 73 72 72 72 72 72 71 71 73 73 73 72 73 74 74 75 76 77 76 76 74 74 73 71 65 67 71 67 69 73 72
75 73 73 73 72 73 74 74 73 72 73 75 74 74 75 74 74 74 74 74 73 74 73 73 74 73 73 73 73 73 73 73 73 72 72 73 74 73 72 72 72 73 73 74 74 73 74 74 75 76 76 75 74 73 73 72 68 64 69 69 70 71 72
72 73 72 72 73 74 74 74 74 73 74 74 74 74 75 75 75 75 75 75 75 74 73 73 73 73 74 73 73 73 73 74 74 73 73 71 74 73 74 73 72 72 73 73 74 74 75 75 74 75 75 75 74 74 73 71 68 65 67 70 70 71 71
73 74 72 72 74 75 74 74 74 74 73 74 75 75 76 75 76 76 76 76 75 76 75 75 74 74 74 72 72 72 73 74 74 73 72 73 73 73 72 73 73 72 74 74 73 77 76 76 77 77 76 75 74 73 74 73 71 68 64 67 69 72 70
72 72 71 72 74 75 75 74 75 74 74 74 75 76 75 75 76 76 76 75 76 76 75 75 74 74 73 73 73 72 72 73 72 71 71 72 74 74 72 72 72 71 72 71 72 73 73 75 78 76 73 75 73 72 74 75 72 68 67 67 69 70 69
72 72 72 73 73 75 75 74 75 74 75 75 75 75 76 76 76 76 75 76 76 75 75 74 74 75 75 74 74 73 73 72 73 73 73 74 75 73 72 71 71 71 71 70 71 72 73 73 73 74 72 72 71 70 70 70 72 71 69 67 68 73 71
71 71 72 73 73 74 75 75 75 76 75 75 75 75 75 76 75 76 74 76 76 75 75 75 74 74 74 74 74 73 73 74 73 73 73 73 70 73 72 71 72 72 71 70 70 71 72 70 74 73 72 73 72 71 70 71 71 72 70 67 66 69 70
70 70 71 73 73 74 74 75 75 75 76 76 75 74 75 75 76 76 77 77 77 77 77 76 76 75 75 74 73 73 73 73 73 74 73 73 73 73 72 72 72 72 71 70 70 70 70 70 71 71 71 73 74 71 69 69 70 69 70 69 68 66 67
70 71 71 73 74 75 75 74 75 75 76 76 75 74 75 75 74 76 77 77 76 76 76 76 75 75 75 75 73 73 72 72 72 72 73 73 74 73 73 73 72 72 71 71 70 69 68 68 67 68 69 68 71 70 69 70 71 69 68 68 68 68 68
71 71 72 73 73 73 74 74 74 76 75 75 75 75 75 74 74 74 75 76 76 76 75 75 76 75 76 74 73 73 72 71 72 72 71 73 73 73 73 73 73 73 72 71 71 70 69 67 68 65 63 66 68 67 67 67 67 68 68 68 68 68 68
71 72 72 72 73 73 73 73 74 75 74 74 74 76 75 74 73 74 74 73 74 74 74 74 75 74 74 73 74 72 72 72 71 71 72 72 72 72 73 73 73 73 72 66 61 62 63 62 68 66 65 67 67 66 66 67 67 68 68 68 68 69 68
72 72 72 72 72 72 73 73 73 73 74 74 72 73 74 74 74 73 73 73 72 71 72 73 64 55 59 72 72 73 70 70 71 71 71 71 71 72 72 72 71 65 59 56 53 51 50 52 56 65 68 68 66 66 66 65 66 67 67 66 67 65 64
71 71 71 72 72 72 73 72 72 73 73 73 72 71 71 72 72 73 73 72 71 71 70 69 48 49 48 51 67 71 71 70 69 69 70 70 70 70 71 73 72 64 60 56 58 46 48 47 48 49 48 49 52 64 66 64 64 65 65 66 66 64 63
70 70 71 71 71 72 71 71 71 72 72 70 70 70 68 71 72 72 72 73 71 71 72 55 45 45 44 45 52 68 70 70 69 69 70 70 71 71 71 71 71 70 68 68 69 63 53 45 45 46 44 43 41 38 43 58 64 65 63 63 62 62 61
71 71 71 71 70 70 71 69 70 70 69 69 69 68 69 69 69 70 70 70 70 69 72 48 44 42 43 43 43 54 71 70 69 69 69 69 69 70 70 69 69 68 70 60 64 69 67 58 45 41 42 41 41 41 40 39 43 59 65 62 60 60 62
71 71 70 70 70 71 70 70 69 68 68 66 66 67 67 67 69 69 69 69 68 69 71 49 42 42 43 42 41 48 67 66 67 68 69 69 69 69 69 69 69 68 68 67 68 68 68 63 59 57 58 61 60 50 43 42 43 43 54 61 61 60 61
71 71 71 71 70 70 69 69 69 68 67 65 64 64 65 65 66 68 69 70 69 68 69 43 42 41 41 41 39 44 63 65 64 65 70 70 70 70 70 69 69 69 69 68 69 66 67 63 61 60 61 62 62 62 62 62 62 62 62 62 62 60 59
70 71 71 71 70 70 69 69 68 68 67 65 65 65 65 68 67 67 68 68 68 68 63 39 42 40 41 41 39 58 66 66 66 70 69 69 69 70 70 70 70 69 69 69 54 49 58 65 63 63 61 61 61 60 56 45 40 43 52 55 55 56 57
69 69 69 69 70 69 69 69 68 69 67 67 67 67 68 68 69 68 68 68 67 66 66 46 39 39 40 39 46 66 68 69 71 69 68 68 69 68 68 69 70 70 68 67 49 46 48 53 64 63 61 60 60 59 56 52 43 39 39 39 38 37 36
70 69 69 69 69 69 69 70 70 70 68 68 67 68 69 68 68 67 66 65 68 66 67 49 38 40 39 39 49 68 71 71 70 68 68 68 69 66 59 46 56 68 65 62 41 45 44 57 65 63 62 60 59 58 56 55 55 50 38 39 39 39 39
69 69 69 69 68 68 68 69 71 70 70 70 68 67 66 66 65 67 67 67 56 63 66 51 37 40 38 40 47 67 71 73 69 68 68 67 67 66 63 56 44 54 59 51 40 43 44 55 66 64 63 61 60 59 58 57 56 55 54 54 53 51 49
68 68 69 68 68 68 70 70 69 69 70 71 70 69 67 66 66 67 67 67 66 68 67 64 51 37 40 39 40 60 72 71 69 67 68 68 66 65 64 61 51 39 39 39 41 42 44 46 63 64 63 62 60 56 58 58 56 58 58 57 58 58 57
66 67 68 68 68 68 69 69 70 70 70 72 71 70 68 69 68 67 68 68 68 67 66 66 54 36 39 39 41 44 72 70 70 69 68 67 67 65 65 63 59 40 38 39 39 39 40 42 48 63 62 60 57 54 54 58 51 43 56 57 56 56 58
65 65 66 67 67 67 68 69 68 69 71 70 68 68 68 68 68 67 67 68 67 65 58 51 64 41 38 39 41 39 63 70 69 70 67 67 67 65 63 61 58 44 38 39 39 40 41 43 44 58 50 40 38 42 56 58 58 58 58 58 58 58 58
64 65 65 66 66 66 68 68 67 68 68 67 67 66 66 66 66 65 65 65 66 65 64 59 46 55 39 40 39 42 42 59 48 67 67 66 65 63 63 58 50 38 38 39 39 40 41 41 45 47 37 39 40 38 45 59 58 57 57 57 56 56 56
64 64 65 65 65 65 66 67 67 67 67 67 67 66 66 65 66 65 63 60 60 61 62 62 48 47 47 37 40 41 44 47 50 65 67 66 65 62 60 57 49 38 38 38 38 39 40 43 46 36 38 37 36 39 55 57 55 56 53 53 54 55 55

ECMWFFLT1_sfc_temp_033.txt.gz
Temp
77 75 77 77 78 79 78 78 78 78 80 80 79 80 80 80 79 78 78 78 78 79 79 78 76 77 77 78 75 74 74 74 73 68 68 73 70 68 72 70 68 70 70 69 71 69 65 61 66 72 74 74 74 75 76 76 76 76 76 79 81 79 78
77 77 78 78 77 77 76 78 78 80 79 79 80 79 80 80 79 78 78 78 78 79 80 78 77 77 76 75 75 74 72 74 73 72 71 72 71 69 71 71 70 71 70 67 72 71 66 64 65 66 67 72 73 73 74 76 77 77 77 78 80 80 77
77 77 78 76 76 76 76 76 77 77 78 77 78 79 79 80 79 79 78 77 77 78 78 77 77 76 75 75 75 74 74 73 75 74 71 69 70 70 74 71 73 71 68 69 65 67 67 67 66 66 68 68 66 70 74 75 76 78 79 78 78 80 78
76 76 75 74 76 75 75 75 76 77 78 77 77 77 78 78 78 78 77 78 77 77 77 77 77 77 76 75 75 75 74 74 73 73 73 73 73 72 74 72 73 72 64 66 67 66 66 63 66 68 70 73 70 68 72 76 77 79 79 78 77 78 77
76 76 74 74 75 75 75 75 76 77 76 76 76 76 76 77 77 77 77 77 77 77 77 77 78 78 77 77 76 75 74 74 74 73 73 72 72 72 72 72 72 73 72 69 69 65 66 66 69 69 70 73 74 74 76 75 79 79 79 80 80 78 78
77 77 76 75 76 76 76 76 75 75 76 75 75 75 75 76 76 76 77 76 75 75 76 77 77 78 78 77 76 75 74 74 73 73 73 72 73 72 73 74 75 74 71 72 70 71 68 67 69 70 74 76 70 71 75 76 75 79 80 79 80 80 79
76 77 77 77 77 77 77 76 76 76 76 75 74 74 75 76 76 76 75 75 76 76 76 76 77 78 78 79 76 75 75 75 75 74 73 73 74 74 75 75 76 76 76 77 76 75 73 73 72 72 72 73 73 74 76 77 78 75 77 79 80 79 78
77 77 78 78 77 77 77 76 77 77 76 75 75 75 76 75 75 75 75 75 75 75 75 75 76 76 76 77 77 75 75 75 75 74 74 74 73 74 74 75 75 76 77 79 79 79 80 77 76 75 73 69 70 73 73 77 76 75 74 77 79 78 77
77 78 78 78 78 77 77 77 77 77 76 76 75 75 75 75 74 74 75 75 75 75 76 76 76 76 76 75 75 74 74 77 74 74 74 73 73 73 74 76 76 76 77 78 79 77 79 79 78 77 76 74 70 67 71 70 72 72 77 74 76 78 77
76 77 76 76 76 77 76 76 76 77 76 76 75 75 75 75 75 75 75 75 75 75 75 75 75 76 75 75 74 74 73 75 74 74 74 73 73 74 74 75 76 76 76 76 77 77 77 78 78 78 79 76 75 70 67 66 67 69 73 77 73 74 77
77 77 76 76 76 75 75 76 76 75 75 75 75 75 75 75 75 75 75 74 75 75 75 76 76 76 75 75 75 74 74 74 74 74 74 74 74 75 75 75 75 75 75 75 75 75 76 76 77 78 78 78 77 73 70 68 66 70 70 73 76 74 76
76 76 76 76 75 75 75 75 75 75 75 75 75 75 75 75 75 75 75 75 75 75 75 75 75 75 75 74 74 74 74 75 74 73 74 74 74 74 74 73 74 74 75 74 75 76 76 77 77 78 77 77 75 73 73 71 65 68 73 68 72 76 75
77 76 75 74 73 74 75 75 75 75 75 76 76 76 76 76 75 75 75 75 75 75 75 75 76 75 75 74 75 75 74 75 75 74 75 76 77 74 74 74 74 75 76 77 75 75 75 76 77 77 77 76 75 75 74 72 67 65 71 71 72 74 75
74 75 75 74 73 73 74 75 76 75 77 76 76 76 76 77 77 76 76 76 76 75 75 74 75 75 75 75 75 75 76 76 75 75 74 74 76 76 76 75 74 74 76 75 76 76 77 77 77 76 77 76 75 75 75 71 68 66 68 72 73 74 74
74 74 72 73 74 75 75 75 75 76 75 76 77 77 78 77 77 77 77 77 76 77 76 76 75 75 75 73 73 75 75 76 75 74 74 75 74 75 74 75 75 74 76 76 75 79 78 78 79 78 77 77 76 74 76 74 72 69 65 69 71 74 72
74 73 73 73 74 74 75 75 76 75 75 76 77 77 77 77 77 78 78 77 77 77 77 76 75 75 74 74 74 74 75 75 73 73 73 74 76 75 74 73 73 73 74 73 74 75 76 77 80 78 75 76 75 74 76 76 72 69 68 68 71 72 72
74 74 72 73 74 75 75 76 77 76 77 77 77 77 78 78 78 77 77 77 77 77 76 76 76 76 76 76 75 74 75 74 74 74 74 75 76 74 74 72 72 73 73 72 73 74 75 75 75 76 74 74 73 72 72 72 73 71 71 69 70 74 74
73 73 73 74 74 76 75 76 76 77 77 76 77 77 77 78 78 78 76 77 77 77 77 77 76 76 75 75 76 74 75 75 74 75 75 75 73 75 73 73 73 74 73 72 71 73 74 73 76 74 74 75 74 72 72 72 73 73 71 69 69 71 71
72 71 72 73 73 75 75 76 76 76 78 77 77 77 77 78 78 78 78 79 79 78 78 77 77 77 77 76 75 75 75 75 74 75 75 75 75 75 74 74 74 73 73 71 71 72 72 72 73 73 73 73 75 73 71 71 71 71 71 71 70 69 70
72 73 72 73 74 75 76 75 76 77 77 77 77 76 77 77 77 78 79 79 78 78 78 78 77 77 77 77 76 75 74 74 74 74 75 75 75 75 75 75 74 73 73 73 72 71 70 70 69 69 70 67 69 69 68 70 71 70 69 69 69 69 69
73 73 73 72 71 74 75 75 75 77 77 77 76 77 77 76 77 78 78 78 78 78 77 77 77 77 77 76 75 75 74 73 74 74 73 75 75 75 74 74 74 74 74 73 72 71 71 69 69 69 69 69 69 69 68 69 69 69 68 68 68 69 70
73 72 69 71 70 72 73 74 75 76 76 76 76 77 77 77 76 76 78 77 78 78 77 76 77 76 76 76 75 74 74 74 74 73 73 73 74 74 74 74 74 74 73 70 63 64 64 64 70 69 68 69 69 68 68 69 68 68 68 68 68 69 68
72 69 70 69 68 69 72 73 73 74 74 76 76 76 77 77 77 76 76 76 77 75 75 76 68 61 60 75 75 75 73 73 73 73 70 71 72 72 72 73 73 69 63 58 56 52 52 57 57 61 67 69 69 68 67 67 67 68 68 66 66 67 66
72 72 72 70 69 72 71 72 72 72 73 73 74 75 75 76 76 76 76 75 74 74 73 73 51 54 52 55 71 73 72 71 72 72 71 70 70 70 70 71 73 65 61 59 59 48 50 51 53 46 43 44 52 65 68 66 66 67 65 65 66 67 66
73 72 72 73 73 73 73 72 71 71 71 71 72 73 72 73 74 74 74 75 73 73 73 57 47 50 50 50 54 69 72 71 70 70 71 70 71 68 66 64 61 62 62 65 67 62 55 48 48 43 42 43 41 40 45 59 62 64 65 66 64 64 64
74 73 73 73 72 72 72 72 71 71 70 69 69 70 71 71 71 73 73 73 72 72 71 49 48 47 47 44 42 52 73 72 70 70 69 69 70 68 62 60 61 60 63 60 62 64 65 59 46 41 41 42 43 42 41 41 45 58 65 64 63 63 64
73 73 72 72 72 71 71 71 70 71 71 68 66 68 69 69 70 71 71 71 71 72 68 48 44 43 44 41 41 47 71 72 70 71 71 68 65 66 63 62 60 61 61 61 62 65 66 63 60 59 59 62 61 51 45 45 45 46 56 64 64 62 63
73 73 74 73 72 72 71 71 70 70 70 69 68 68 68 67 69 69 69 70 70 69 69 47 43 43 44 43 42 44 67 69 69 68 64 61 60 60 64 65 61 60 61 62 64 66 68 65 62 61 62 62 63 62 64 64 64 64 64 64 65 64 63
72 73 73 73 72 72 72 71 70 70 70 69 70 70 69 69 68 68 68 68 66 65 65 43 44 43 43 42 40 58 66 68 68 67 66 66 66 67 69 69 69 68 65 66 57 52 60 66 64 63 62 63 63 63 57 45 40 44 54 60 60 60 59
71 72 72 72 73 72 71 71 70 71 70 69 69 68 69 69 69 69 68 69 68 67 65 45 42 42 42 40 45 64 67 67 66 66 66 67 68 70 69 68 70 71 70 68 50 48 50 56 65 64 64 63 63 62 58 54 43 40 39 39 38 37 38
71 71 72 72 71 71 72 73 73 72 70 70 69 70 70 70 70 69 70 69 70 68 68 51 40 42 41 40 49 64 67 65 63 64 65 67 70 69 60 46 56 70 68 63 43 47 46 58 66 65 64 62 61 60 58 57 56 52 39 41 40 39 40
70 70 70 71 70 70 71 71 73 73 72 71 71 72 72 70 70 71 71 70 62 66 64 50 39 41 40 40 49 63 66 67 67 67 68 68 69 67 64 55 44 52 59 51 40 46 44 55 66 65 64 62 61 60 59 59 58 57 56 55 54 52 50
69 69 69 69 70 70 71 71 72 72 72 73 73 72 71 71 70 69 70 69 67 65 63 59 47 40 41 41 42 60 69 70 69 69 69 68 67 67 65 62 51 40 40 40 42 43 44 41 58 66 65 64 62 62 62 61 59 61 61 60 60 59 59
67 68 68 68 69 69 70 70 70 71 71 72 72 71 68 69 68 67 67 68 64 65 67 63 51 39 41 41 41 44 65 68 69 70 70 69 69 66 66 63 59 41 39 39 39 39 42 42 47 65 62 59 58 59 57 61 54 49 59 59 59 58 59
67 66 67 67 67 67 69 70 70 70 71 71 70 67 63 61 65 65 64 66 65 67 65 59 59 40 40 40 41 38 57 69 68 71 68 70 69 68 65 62 58 44 38 39 40 40 41 43 45 57 50 41 40 44 60 61 60 58 59 60 61 60 61
64 66 66 66 66 66 67 68 69 69 69 69 68 68 66 65 67 67 66 66 69 67 66 62 50 50 38 38 38 40 38 53 53 68 69 68 68 67 63 57 49 39 39 39 40 41 42 43 46 48 39 41 41 39 49 61 61 60 60 60 59 58 58
65 65 66 66 66 65 66 67 68 68 69 68 68 67 68 67 67 66 65 66 68 67 66 66 51 46 43 38 40 42 44 41 43 64 69 70 68 64 60 55 47 39 39 39 39 40 41 44 47 38 39 38 39 43 57 60 58 59 56 56 56 57 58

ECMWFFLT1_sfc_temp_036.txt.gz
Temp
71 70 72 72 73 73 72 73 73 74 75 75 74 75 74 74 73 74 75 73 73 74 73 72 70 70 71 72 71 71 69 69 67 65 63 63 61 61 64 64 64 67 67 66 67 62 60 57 59 62 67 66 67 66 66 69 69 68 68 69 72 70 69
71 72 72 72 72 72 72 73 73 74 74 75 75 75 75 75 74 73 74 73 73 73 74 73 72 73 71 69 70 69 67 68 67 67 65 62 62 61 62 61 65 64 65 65 65 67 62 59 57 59 61 65 66 66 68 68 69 69 69 70 71 71 68
71 71 71 70 70 72 71 72 72 72 72 72 73 76 74 75 74 73 73 73 71 72 72 73 72 71 71 70 70 69 69 67 68 67 66 66 66 65 64 64 61 62 62 62 62 62 64 62 58 61 62 61 59 64 67 66 68 69 71 69 69 71 68
71 70 69 69 70 72 71 71 71 71 72 71 72 72 73 74 73 73 72 72 72 72 72 73 71 72 70 70 71 69 69 68 66 66 67 67 66 65 64 63 62 63 61 61 61 63 62 60 59 61 64 66 64 62 65 69 69 71 72 68 69 69 68
71 71 69 69 70 70 71 70 72 71 71 71 71 72 72 73 73 72 72 72 71 72 71 72 72 72 72 71 70 69 69 69 70 68 68 67 67 66 66 65 65 66 66 64 64 64 63 62 62 61 64 67 68 66 71 66 71 70 70 71 71 69 69
71 71 71 70 71 70 71 71 70 70 70 70 70 70 71 71 72 71 71 69 69 70 71 72 71 72 71 70 70 69 69 69 68 67 66 66 67 67 65 67 68 68 66 66 65 64 65 66 64 63 68 69 62 63 67 68 66 70 71 70 71 70 70
71 71 71 71 71 72 72 71 71 71 70 70 70 69 71 71 70 70 69 70 70 70 70 70 71 72 71 72 70 69 69 69 69 68 68 68 68 69 69 67 68 68 67 67 66 66 64 64 61 62 63 64 65 65 68 68 70 67 67 69 70 70 69
71 71 72 73 72 72 72 71 72 72 70 70 70 69 70 69 69 69 69 69 69 69 70 70 71 69 69 71 70 69 69 69 69 68 67 67 68 69 67 67 68 67 67 69 67 67 68 66 66 66 63 60 60 63 64 69 68 67 66 68 71 69 68
71 72 72 72 72 71 71 71 71 71 70 69 69 69 69 69 68 69 69 69 69 69 70 70 69 69 68 68 68 68 68 72 68 67 67 67 66 66 66 67 67 66 67 68 70 67 69 69 67 67 66 63 59 58 61 59 61 64 70 66 68 69 68
71 71 70 71 71 72 71 70 72 71 70 69 69 69 68 69 68 68 68 69 69 69 68 68 69 68 68 67 67 66 66 67 67 67 66 65 67 68 66 66 66 66 66 66 68 68 68 68 69 66 67 64 63 60 57 56 57 58 65 69 64 65 69
72 72 71 71 71 71 71 71 71 70 69 70 70 70 69 68 68 69 68 68 68 69 68 68 69 69 67 67 67 66 67 66 66 66 66 67 66 67 67 67 67 65 66 66 67 66 67 67 66 68 65 65 64 61 60 58 56 60 60 64 66 65 67
72 72 71 71 71 71 70 71 70 70 70 69 69 68 68 68 67 67 67 68 67 68 68 69 68 67 67 66 66 66 66 66 65 65 66 66 68 67 66 66 65 65 66 66 66 67 66 67 67 67 65 66 66 64 63 61 56 58 62 58 63 68 66
73 72 71 70 70 70 71 71 70 69 69 70 69 69 69 69 68 67 68 68 68 67 68 68 68 67 67 66 66 67 67 67 67 66 67 68 71 68 65 65 66 66 66 67 66 66 66 67 67 66 66 66 66 66 64 61 58 56 61 61 62 66 68
71 71 71 71 70 70 70 70 70 70 70 69 69 69 69 69 70 68 69 69 69 67 67 67 68 67 67 66 66 67 67 68 68 67 66 66 69 68 68 66 66 67 66 65 66 66 68 68 67 68 67 65 65 65 65 62 58 57 61 62 62 64 65
71 71 70 70 70 70 70 70 70 70 69 70 70 71 71 69 69 69 69 70 69 69 69 68 68 67 67 66 68 70 68 67 66 67 66 67 66 69 66 65 67 65 67 68 66 71 70 69 71 69 68 67 66 66 65 64 60 57 55 60 61 65 63
70 69 69 69 69 70 70 70 71 69 70 69 71 70 70 69 70 70 70 69 69 69 69 69 67 67 67 67 68 68 67 66 66 65 65 66 68 67 66 64 64 66 68 65 65 65 67 69 70 70 67 67 64 65 66 66 62 59 58 58 61 63 62
69 69 68 69 69 70 71 70 70 70 71 70 71 70 70 71 70 69 69 69 69 69 69 68 68 69 69 68 68 68 66 66 68 68 67 67 69 66 65 64 64 66 65 64 64 65 65 66 65 67 66 64 64 64 63 62 65 62 60 59 61 65 64
69 69 68 69 69 70 71 70 70 71 70 70 71 70 70 71 70 70 69 71 70 69 69 69 69 68 68 68 68 67 67 68 68 69 69 67 68 66 65 65 66 65 65 64 62 62 65 64 69 65 64 65 64 64 64 63 63 64 60 59 59 62 64
69 69 70 69 70 71 70 71 70 70 71 70 70 71 70 70 71 71 72 72 71 71 71 69 70 69 69 68 67 67 67 67 68 69 69 69 68 67 66 65 66 65 66 63 63 64 64 67 66 65 63 64 66 63 61 62 61 60 61 61 60 58 61
62 67 69 70 70 71 71 71 71 72 71 71 70 70 70 70 70 71 72 71 71 71 71 71 69 69 70 70 68 68 67 66 67 68 67 69 68 68 67 68 65 65 65 65 65 64 63 62 63 62 61 62 64 61 59 62 63 61 60 60 60 61 61
65 67 69 70 70 69 70 71 71 72 72 71 70 70 70 70 69 70 70 70 71 70 70 70 70 70 70 69 68 67 67 66 66 67 66 67 67 67 67 68 66 67 67 67 66 63 64 62 62 61 61 61 61 62 60 61 59 60 59 60 58 58 60
69 68 69 70 68 68 66 67 67 65 67 71 71 71 71 71 70 70 71 70 71 70 70 70 71 69 68 68 69 67 67 68 66 66 66 67 67 67 67 68 66 63 66 67 59 62 63 61 64 62 62 61 62 61 60 60 61 60 59 58 58 61 60
69 69 68 68 67 66 65 65 64 64 65 67 68 69 70 71 70 69 69 70 70 70 69 70 68 63 64 68 68 71 68 67 67 66 65 65 66 67 66 63 60 62 56 55 53 50 46 48 52 56 57 61 60 61 60 59 59 60 59 57 57 57 56
68 68 68 68 66 66 65 64 64 64 65 66 66 67 68 69 69 69 69 69 69 70 71 68 52 54 54 55 67 66 66 66 67 66 66 65 65 63 62 60 59 59 59 59 54 46 44 43 44 44 44 46 51 56 58 59 58 58 58 58 57 55 54
68 67 67 67 67 66 65 65 66 65 65 64 65 65 64 67 68 67 67 67 67 68 65 50 47 51 51 49 48 62 66 66 66 66 65 65 61 59 58 57 58 58 59 60 59 56 49 44 43 43 43 43 42 43 46 55 56 54 55 55 55 54 54
69 68 68 68 67 66 66 65 64 63 62 62 63 63 63 65 66 68 68 67 66 66 61 55 49 47 50 49 43 52 67 66 65 64 65 61 58 58 57 57 57 58 60 59 60 59 57 51 44 43 42 43 43 43 43 44 47 55 56 55 55 54 53
68 68 68 67 66 64 63 62 62 62 61 62 62 63 64 64 65 65 65 65 66 64 60 55 49 47 47 45 43 49 64 65 64 65 61 58 59 58 58 57 57 58 59 59 59 59 58 55 51 50 51 53 54 47 42 42 45 48 53 57 55 54 54
69 70 70 69 68 68 64 62 62 60 59 61 63 63 63 63 64 64 65 66 65 65 61 51 48 45 44 44 43 46 61 63 63 63 57 57 57 58 58 58 58 58 59 58 59 58 58 57 54 54 54 56 56 55 56 55 54 56 58 59 57 56 54
68 68 69 69 68 69 68 66 66 65 65 65 65 65 64 64 64 64 65 66 65 63 60 47 46 44 44 43 43 54 60 61 61 62 61 59 59 59 60 60 59 58 59 59 54 49 53 58 56 55 55 56 56 53 46 43 40 44 49 51 51 51 49
66 67 67 67 67 67 67 67 66 66 65 64 63 64 64 64 65 65 65 65 64 64 61 49 43 43 43 42 46 59 60 61 62 62 61 60 61 62 61 62 60 59 59 59 52 45 45 52 58 57 56 56 56 52 50 48 42 41 41 41 40 40 40
65 65 65 66 66 65 65 66 66 67 65 64 64 65 65 65 65 65 64 64 65 64 63 53 44 44 43 41 49 60 61 61 61 62 61 62 61 59 53 51 58 62 60 60 47 45 45 55 59 58 57 56 54 52 50 51 51 46 41 41 39 39 40
64 63 64 64 64 64 64 65 65 66 66 66 65 66 66 66 65 65 65 65 62 63 59 49 41 42 42 41 47 59 62 62 61 60 61 59 60 58 54 49 49 55 57 49 42 45 47 56 59 59 58 56 54 52 50 51 50 47 48 48 47 46 45
62 62 63 63 63 63 64 64 64 64 64 67 66 66 66 66 64 63 64 64 62 59 58 58 48 40 41 40 43 57 62 61 59 57 60 60 60 58 55 52 46 41 41 41 41 40 41 46 52 55 57 56 54 54 53 53 53 51 49 49 49 47 48
61 62 63 62 62 62 63 62 63 63 63 64 64 64 64 60 57 56 59 60 59 58 58 59 53 40 41 41 41 45 59 61 60 60 59 59 60 57 57 53 49 41 41 41 41 41 41 43 47 53 53 51 52 54 52 52 48 49 52 51 52 50 51
61 61 62 62 60 60 62 63 63 63 64 63 63 62 63 60 59 59 60 61 61 59 58 55 57 41 41 41 41 41 53 58 56 59 58 60 60 59 56 52 49 41 40 40 40 41 42 44 45 50 46 41 42 47 55 53 52 50 51 50 49 49 51
59 61 60 60 60 60 61 61 61 62 61 62 61 62 62 61 60 59 60 61 61 60 61 59 51 47 40 40 40 40 42 51 45 52 59 59 56 56 51 48 44 40 40 40 41 42 42 43 44 44 40 40 42 45 49 52 51 51 50 51 51 50 49
58 58 58 59 60 59 59 60 61 61 61 61 61 61 62 62 60 60 59 60 60 59 60 60 48 45 44 39 40 39 40 40 39 52 61 58 56 52 49 47 43 39 40 40 40 41 42 43 43 38 39 40 44 46 52 50 49 51 48 48 49 48 48

ECMWFFLT1_sfc_temp_039.txt.gz
Temp
64 64 65 65 66 67 66 66 66 66 67 67 66 66 65 66 65 65 65 65 65 65 65 65 65 65 66 66 65 65 64 63 62 61 59 59 58 57 61 59 60 63 63 62 63 59 57 54 55 59 61 62 61 62 62 62 63 63 64 64 65 63 62
66 66 65 66 66 66 65 65 65 65 65 66 66 66 65 66 66 65 64 65 64 65 67 66 65 66 65 65 64 63 63 63 62 61 60 59 60 58 58 59 60 61 61 60 61 63 57 54 54 55 56 62 61 61 60 61 63 64 64 64 64 63 61
65 65 65 64 64 64 64 62 63 64 64 64 65 65 65 66 66 65 65 64 64 66 66 66 65 64 64 64 64 63 63 62 62 62 61 60 60 60 60 59 58 58 59 59 59 60 60 59 56 56 56 57 56 59 60 61 64 65 65 63 62 62 60
65 64 64 64 63 62 64 64 63 64 64 64 64 66 66 66 65 65 64 64 64 65 66 65 64 65 64 63 64 64 63 62 61 62 62 61 61 61 61 60 59 60 57 57 57 59 59 57 56 56 58 61 60 59 61 64 65 66 65 63 62 60 59
66 65 64 63 62 63 63 63 62 63 64 65 64 63 64 65 64 63 64 64 64 63 63 64 64 64 64 64 63 63 63 62 62 62 62 61 61 61 60 60 60 61 60 61 60 60 60 59 59 58 58 60 61 61 64 60 65 65 64 64 63 61 60
66 65 64 63 62 63 63 62 63 63 62 63 62 64 63 64 64 64 63 63 64 64 63 63 64 64 64 63 62 62 62 62 62 62 61 61 61 61 59 60 61 62 61 61 62 62 62 61 60 59 61 61 56 57 60 61 60 63 64 63 63 62 61
65 65 64 64 63 64 63 63 63 63 63 63 62 61 63 64 63 63 63 63 62 62 63 63 62 64 63 64 64 63 63 62 61 61 62 61 61 61 61 60 60 60 60 62 62 63 62 60 58 59 58 58 56 61 61 60 64 60 61 62 63 63 61
66 65 64 65 65 64 63 64 63 63 63 62 62 63 63 62 63 63 62 62 63 62 61 62 64 63 63 64 62 61 61 61 62 61 60 61 62 61 59 60 61 60 61 61 60 62 64 63 61 59 59 56 54 55 57 60 58 58 61 59 63 62 61
66 66 64 65 64 64 63 63 63 63 63 62 63 62 62 63 61 62 63 62 62 61 60 62 62 63 63 62 61 61 61 65 62 61 60 61 61 61 60 60 61 60 61 62 63 61 62 63 62 60 61 59 55 51 53 54 56 57 63 59 60 62 61
66 65 65 64 64 64 64 64 64 64 63 63 63 62 62 61 60 60 60 60 60 61 60 60 61 61 61 61 60 59 59 59 60 60 58 59 57 59 60 60 59 60 59 59 61 61 61 61 61 59 60 63 57 55 51 51 53 51 60 61 57 61 62
65 65 65 65 64 65 64 64 64 63 63 64 64 64 60 59 61 63 60 61 59 60 59 60 61 61 61 59 60 59 59 58 58 59 61 61 61 61 61 61 61 60 59 61 60 60 61 62 61 60 58 59 62 59 52 52 52 52 54 59 58 58 60
64 65 65 65 65 65 64 64 64 63 63 63 63 60 60 61 61 60 59 58 59 59 59 59 59 60 60 59 58 58 58 59 59 58 59 61 61 62 60 59 60 60 59 61 62 62 61 62 61 62 59 60 59 60 58 55 52 56 53 55 58 62 60
66 65 65 65 64 64 64 64 64 63 63 62 61 61 60 60 60 59 59 59 60 59 58 59 60 59 59 58 57 60 58 58 59 58 60 62 65 60 58 58 58 60 59 61 63 62 60 61 61 61 61 60 59 58 58 54 53 54 54 53 57 61 61
65 65 65 65 64 63 63 64 64 64 63 62 62 60 60 60 60 60 59 59 59 58 58 59 59 57 57 57 58 59 58 59 59 59 59 59 60 60 60 58 58 58 57 59 59 62 63 64 63 61 60 60 59 60 60 56 55 54 58 56 55 59 60
65 65 65 64 64 63 63 63 63 63 62 63 62 61 61 61 59 60 60 59 58 58 58 59 57 58 59 58 58 61 60 60 59 57 57 59 59 61 58 59 60 59 59 60 58 63 61 62 63 62 60 60 58 59 58 57 53 52 55 57 58 59 60
64 65 64 62 63 63 62 63 64 63 62 63 62 62 62 61 61 61 60 60 60 58 60 58 57 60 58 57 58 59 60 59 58 59 60 59 60 58 58 57 57 57 60 59 57 57 60 63 63 62 59 60 60 58 59 60 56 53 55 54 55 57 57
64 65 63 62 62 62 62 62 63 63 63 63 62 61 63 63 61 60 61 61 60 60 58 59 60 59 59 57 59 60 58 59 60 60 60 60 60 59 57 57 57 57 56 56 57 57 58 58 60 60 59 57 59 59 56 56 57 53 53 55 54 61 58
60 62 64 63 63 63 63 63 62 63 62 63 60 62 64 62 61 61 61 61 60 60 60 61 61 60 59 57 59 59 58 58 58 59 60 61 62 60 58 57 57 56 54 56 56 56 58 57 60 58 57 57 58 59 58 58 57 55 54 54 56 59 57
61 61 64 64 63 63 64 64 63 62 63 63 59 62 63 61 62 62 62 62 61 61 61 61 61 60 60 58 59 59 58 57 58 59 60 60 60 60 59 57 57 55 54 55 57 56 55 56 57 56 57 59 58 56 56 55 54 55 55 54 54 56 56
59 59 60 61 63 63 64 64 64 63 63 62 60 61 62 61 60 62 62 62 62 62 62 61 60 60 60 59 60 59 59 58 57 59 58 60 60 59 59 59 56 56 56 55 55 55 55 56 57 55 56 56 57 54 54 54 55 55 54 54 54 52 54
59 60 59 60 62 63 63 64 64 62 62 61 62 62 64 61 62 61 63 62 62 63 62 61 61 61 62 60 60 58 59 58 57 58 58 57 59 58 57 57 58 58 56 56 56 55 57 57 56 55 54 55 55 54 52 52 52 52 55 55 53 52 52
59 59 58 59 61 61 59 59 59 58 59 59 63 62 61 61 61 60 60 60 61 62 63 63 63 63 62 61 61 60 58 60 58 57 58 57 57 57 56 55 55 54 58 59 58 58 58 59 57 56 54 53 52 53 53 52 53 53 54 53 51 51 50
59 60 59 59 60 59 59 58 57 56 58 59 58 59 61 60 61 62 61 61 61 62 63 63 63 60 59 63 60 63 60 60 59 57 58 56 56 55 55 55 56 60 54 53 50 47 47 50 53 55 54 53 54 54 54 53 52 52 51 50 52 50 50
59 59 59 59 59 59 59 59 57 58 58 57 58 58 58 60 61 62 61 61 60 61 62 65 56 51 53 56 61 59 60 59 58 58 57 56 56 57 55 55 54 57 56 53 49 45 45 46 46 46 47 49 52 54 54 53 51 51 50 51 49 49 47
59 59 60 59 59 59 58 57 58 59 57 57 56 57 57 57 58 59 60 60 58 58 57 48 47 48 45 44 52 59 60 60 60 58 57 56 56 56 56 56 54 55 54 55 52 50 47 44 44 43 43 43 43 44 48 53 52 52 51 51 51 49 48
58 59 58 59 58 58 57 57 57 58 56 55 55 56 56 57 57 59 59 59 58 58 57 44 46 46 43 42 45 56 60 59 60 57 57 57 57 56 56 55 54 54 56 59 56 53 51 47 43 43 44 44 44 45 44 45 48 54 53 52 51 49 50
58 59 58 58 57 56 57 56 56 54 54 54 54 54 55 56 56 57 58 58 56 57 57 48 45 46 44 42 43 52 58 58 58 57 57 57 56 56 56 55 55 55 54 55 55 54 52 49 47 48 48 48 48 46 44 44 45 47 51 53 52 50 51
57 58 58 57 57 56 56 55 56 54 53 54 53 53 54 55 56 57 57 58 55 56 59 52 47 45 45 42 40 46 56 58 57 56 56 56 56 56 56 55 55 55 55 54 55 55 54 51 50 49 49 49 48 48 47 47 46 50 53 53 52 51 50
56 57 57 57 57 57 55 54 54 53 53 52 52 53 53 54 56 57 57 56 57 54 57 50 47 46 45 43 42 49 53 55 55 55 54 55 56 56 56 56 55 55 55 55 52 48 50 52 51 50 49 49 47 44 43 43 41 44 48 50 49 48 47
55 56 55 55 55 55 54 55 55 53 54 52 53 53 54 55 56 57 56 56 56 54 55 50 44 44 44 43 44 51 52 55 55 54 54 55 56 56 56 56 56 56 56 56 49 44 46 48 51 50 50 49 46 45 43 43 41 41 42 42 43 42 41
54 54 54 54 54 54 54 54 55 55 54 54 54 55 56 55 56 57 57 57 57 56 54 51 44 42 43 43 46 52 53 54 54 52 54 55 54 55 56 56 57 56 56 55 45 43 44 50 51 51 50 48 45 44 42 44 45 43 41 40 40 40 40
53 53 53 53 53 53 53 54 54 54 53 53 55 55 55 55 57 58 58 58 58 57 54 52 45 44 45 44 45 51 53 54 54 53 54 52 53 51 50 50 52 54 55 53 43 43 43 50 52 51 51 49 46 44 45 44 44 43 43 43 42 43 43
53 53 53 53 53 53 53 54 54 54 55 56 54 53 53 56 56 57 57 57 57 56 54 52 50 44 43 43 42 49 54 53 53 52 53 53 51 50 49 46 44 42 46 46 43 43 42 46 53 52 51 49 47 46 46 45 45 45 43 43 41 43 44
51 52 53 54 54 54 54 53 53 55 56 56 55 55 54 51 54 54 53 53 53 52 55 54 52 42 42 42 41 43 51 54 52 52 52 51 52 49 47 44 45 41 42 42 42 41 43 44 46 52 52 51 50 48 46 46 45 45 44 42 42 42 42
52 53 53 53 52 52 53 54 54 53 51 50 50 51 52 52 51 51 52 52 53 54 55 54 55 46 41 41 40 40 48 53 53 53 52 52 52 49 46 43 44 42 40 41 41 42 42 42 42 46 46 43 41 43 49 47 46 45 45 44 42 43 44
51 52 52 51 50 50 51 51 52 52 52 53 53 52 52 52 52 51 51 52 52 53 54 53 49 50 43 41 40 40 42 49 44 52 53 52 51 48 44 43 42 41 39 40 41 41 41 42 43 43 41 42 43 43 45 46 45 46 43 43 43 43 43
50 49 49 49 49 49 49 50 50 50 50 50 50 50 51 52 52 52 52 52 52 52 54 53 49 47 47 40 40 40 39 42 43 49 52 51 49 48 44 42 42 39 40 40 41 42 42 43 43 41 43 42 43 44 46 45 43 45 41 40 41 40 42

ECMWFFLT1_sfc_temp_042.txt.gz
Temp
63 61 62 62 61 61 61 62 63 62 63 63 62 61 62 62 61 61 61 61 62 62 63 63 62 62 63 63 63 62 61 61 60 60 58 58 58 57 59 57 58 60 60 58 59 57 54 53 54 59 59 59 60 59 60 61 61 60 59 59 59 58 56
63 62 61 62 61 61 61 60 62 61 62 63 62 62 61 62 62 62 61 61 61 61 63 62 61 63 63 62 62 61 61 60 60 60 59 58 58 58 57 56 59 58 58 59 59 58 54 53 52 54 56 58 58 59 59 60 60 60 59 58 59 57 56
62 61 62 61 60 60 60 60 60 60 61 60 61 62 61 62 62 61 60 61 61 62 62 61 61 62 62 62 62 62 61 60 59 60 60 59 59 59 59 59 57 56 57 57 56 56 58 56 55 55 56 56 55 57 57 59 59 59 59 58 57 56 54
61 61 61 60 59 59 61 59 60 60 60 60 61 60 61 61 61 62 62 61 62 63 62 62 61 62 62 62 61 61 61 61 59 59 58 58 59 59 58 59 59 60 58 56 56 57 56 55 55 55 55 56 55 55 56 60 60 59 59 56 56 55 54
63 63 62 60 60 60 60 59 59 59 60 60 60 59 59 60 61 60 61 61 61 61 62 62 61 62 62 61 61 61 60 59 60 60 59 58 58 58 57 58 59 58 59 59 59 58 58 58 59 56 55 55 58 57 59 57 59 58 57 57 56 55 54
64 64 62 60 59 60 59 59 59 60 59 61 59 60 59 59 61 61 61 60 60 60 61 62 61 61 61 61 60 60 60 60 60 60 59 58 59 58 58 58 59 59 60 59 60 58 59 59 58 56 55 56 53 54 57 58 54 57 56 57 57 56 55
63 63 62 61 60 61 60 60 60 60 59 59 58 59 59 59 59 60 61 60 58 59 60 60 60 60 60 61 60 59 59 58 58 59 58 58 57 57 58 58 59 58 59 60 59 59 59 58 56 57 56 53 54 57 56 54 57 55 57 57 58 56 55
62 62 61 61 61 60 60 61 60 59 60 59 60 59 59 59 58 58 59 60 59 59 60 60 61 60 60 61 60 59 58 58 58 58 57 58 59 57 56 58 58 58 59 61 58 60 61 60 59 57 57 55 51 52 53 54 52 53 55 56 58 56 55
63 63 61 61 61 61 61 61 60 60 60 59 59 59 59 59 58 58 59 58 58 58 58 59 60 59 59 59 58 59 59 60 58 57 56 57 57 56 56 56 59 58 59 60 61 61 61 60 59 57 57 57 55 51 50 51 51 52 57 53 57 57 56
63 62 62 61 60 60 61 60 60 59 59 59 60 59 58 58 58 58 58 57 58 57 58 58 59 58 58 59 59 57 56 56 58 57 56 57 55 56 56 57 57 58 58 58 60 61 60 58 58 56 58 59 56 53 48 47 49 47 56 53 52 56 57
62 60 60 60 60 60 60 60 60 60 59 60 61 60 58 57 59 59 57 56 56 57 58 57 58 57 57 56 56 56 55 57 57 57 57 58 57 58 57 57 57 56 56 59 58 60 59 60 57 58 57 55 59 58 51 50 49 47 51 54 51 54 55
61 61 61 61 62 61 60 60 61 60 59 58 60 57 56 56 56 56 57 55 56 57 56 57 56 57 57 56 56 56 55 58 58 57 56 59 57 59 58 57 56 56 57 59 59 57 57 58 58 58 57 57 56 58 54 52 49 51 51 54 54 55 57
62 62 62 62 62 62 61 61 60 59 59 59 56 56 56 56 56 55 56 56 56 55 56 56 57 56 56 55 56 58 55 56 58 57 56 57 61 58 57 57 56 57 56 58 57 56 55 56 58 58 58 56 54 54 56 54 53 53 50 49 51 55 57
61 62 62 63 62 62 61 62 61 60 58 57 57 57 57 56 55 55 55 56 56 55 56 55 55 55 55 55 54 54 55 56 57 55 56 56 56 56 57 56 54 55 55 58 56 56 57 56 56 57 57 57 54 55 57 52 53 52 54 51 52 56 55
60 62 62 62 62 61 61 61 60 60 59 57 58 58 57 56 55 55 55 55 54 55 55 54 53 54 55 54 54 56 55 55 54 54 54 54 54 56 54 55 55 54 54 57 56 59 58 57 59 58 56 57 56 55 56 53 50 51 51 54 56 55 54
60 60 62 61 61 61 61 61 61 61 59 58 57 57 57 56 56 55 56 55 54 54 54 54 53 54 53 54 54 55 55 53 53 54 55 54 55 54 54 54 54 54 57 56 54 55 57 59 59 59 57 57 57 56 55 56 53 51 52 53 52 56 53
59 60 60 60 61 60 61 61 61 61 60 58 58 58 57 56 56 56 56 55 55 54 54 55 54 54 55 54 55 55 53 53 53 53 54 54 54 54 54 54 54 53 54 55 53 55 55 56 57 57 56 54 57 56 53 54 55 47 49 54 52 57 55
58 59 59 59 59 60 61 61 61 62 60 58 57 56 58 57 55 56 57 56 56 54 54 55 55 54 54 54 55 54 53 53 53 54 54 54 57 53 53 53 53 52 53 54 52 54 54 55 57 57 56 55 55 55 55 55 53 52 53 54 55 53 52
59 58 58 58 59 61 62 61 61 61 61 59 57 58 58 56 58 57 56 55 55 55 55 55 56 55 54 54 55 56 55 55 54 55 54 55 54 53 53 53 53 52 52 53 52 51 52 53 53 54 55 55 56 53 53 52 52 53 55 54 54 54 53
57 57 57 58 59 59 60 60 61 61 61 60 60 60 59 58 57 58 58 56 56 56 57 56 56 54 54 55 56 56 55 54 54 54 54 55 54 53 53 53 52 52 52 51 52 51 51 51 54 53 54 54 53 53 52 51 52 54 54 53 50 51 52
57 57 57 58 58 58 61 60 60 60 60 59 59 61 60 59 58 58 59 58 58 57 56 55 55 54 55 55 55 54 54 53 54 54 54 54 54 54 54 54 53 53 52 51 52 51 52 53 52 52 51 53 52 53 52 50 50 51 52 52 51 52 48
57 57 58 58 58 57 57 57 57 57 57 57 58 59 59 58 58 56 56 57 57 56 58 58 58 55 55 55 54 54 53 54 55 54 53 53 54 53 52 52 52 52 54 58 56 55 56 56 55 54 51 51 51 52 49 49 51 50 49 50 49 47 47
57 57 58 57 57 56 57 56 56 56 57 57 56 55 56 58 56 58 58 56 56 58 58 59 60 57 57 58 55 59 56 54 54 54 54 53 52 52 54 53 54 61 58 56 54 51 50 52 55 57 54 52 52 52 51 50 49 49 50 49 48 48 48
57 57 57 56 56 57 57 56 56 57 56 56 56 55 55 54 55 56 56 57 56 58 59 60 54 49 50 53 59 56 57 55 53 55 54 54 54 53 52 52 52 54 53 54 49 48 48 48 50 51 51 52 53 55 52 50 48 48 49 49 47 47 46
56 56 56 56 56 56 56 55 54 54 55 55 54 54 55 54 54 54 54 54 55 58 59 57 50 48 49 49 54 59 58 59 56 56 56 55 55 54 54 52 51 52 51 51 49 48 47 46 45 45 45 46 46 47 48 53 50 48 48 49 47 47 47
56 55 55 55 55 55 55 55 54 54 53 54 55 54 53 53 53 54 54 55 53 54 56 48 46 47 46 46 49 56 59 59 57 56 57 57 56 55 54 53 53 52 55 56 54 50 49 46 45 44 44 44 44 43 43 44 47 53 50 50 49 47 48
53 54 54 54 54 54 53 53 53 52 52 54 54 54 53 53 53 53 53 55 52 54 53 47 44 44 42 42 44 50 59 58 57 57 57 57 56 56 55 55 54 54 53 54 52 51 49 48 46 47 47 47 47 46 44 43 43 45 50 53 53 52 50
52 53 54 54 54 54 53 53 54 53 52 53 54 54 53 52 53 54 53 53 53 52 56 48 43 44 45 43 43 49 57 57 56 56 56 56 56 57 56 56 56 56 54 54 53 52 51 49 48 49 47 46 47 47 47 48 50 50 51 52 54 54 51
50 50 51 51 51 52 52 52 52 51 51 50 50 50 50 49 51 51 52 52 52 53 54 46 42 43 42 41 41 50 53 55 55 55 56 54 53 54 55 56 55 55 54 54 51 46 49 51 50 49 48 45 44 43 43 42 40 42 49 50 51 51 49
50 50 50 50 50 50 51 51 49 50 50 50 49 49 49 50 51 51 51 51 52 54 54 50 43 42 42 39 44 50 51 52 52 54 55 54 55 57 56 56 56 55 54 53 48 43 45 48 51 50 49 46 44 44 43 43 42 42 43 43 44 44 44
48 48 48 48 47 47 48 48 49 50 49 50 50 51 51 51 51 51 51 53 53 53 54 52 46 41 41 41 47 52 51 52 52 52 52 53 53 54 56 56 57 56 55 54 45 42 43 49 52 50 49 46 44 43 42 43 44 42 42 42 42 41 41
48 48 47 47 47 47 47 48 48 48 48 48 49 50 50 50 51 51 51 53 55 55 53 52 46 43 41 41 46 51 51 51 51 51 52 52 51 52 53 54 53 53 54 53 43 41 42 48 52 50 49 47 46 44 43 42 43 43 42 42 40 42 41
47 47 47 47 47 47 47 48 47 48 48 49 49 49 49 50 50 51 50 50 52 53 54 53 51 44 43 41 44 51 51 51 51 51 51 51 52 52 51 51 50 45 44 44 41 40 41 45 51 50 49 47 45 44 44 43 44 45 44 44 42 41 41
47 48 48 47 47 47 48 47 48 48 48 48 47 48 48 47 47 47 49 49 50 50 52 53 53 45 44 43 42 46 50 51 52 51 50 49 52 52 50 48 47 45 43 42 41 40 41 43 47 50 49 48 48 49 45 44 43 44 43 42 42 40 41
48 48 48 47 46 45 47 48 48 48 47 47 46 47 47 47 46 46 47 48 49 50 52 52 52 48 44 43 42 42 49 51 51 52 51 50 51 51 50 48 47 45 41 41 42 41 41 42 44 49 49 46 43 41 46 46 44 43 43 42 40 40 39
45 47 45 44 44 43 44 45 45 45 44 44 44 44 45 45 45 46 47 47 47 48 49 51 47 49 46 43 42 41 42 47 45 50 52 51 51 51 49 46 45 43 40 40 41 41 41 42 43 47 43 40 40 42 44 45 44 43 41 42 42 40 38
44 42 42 42 42 42 42 42 43 44 42 42 41 42 42 44 44 43 43 45 46 46 47 47 47 46 47 45 42 41 40 40 42 49 52 52 51 50 46 44 42 39 39 39 40 40 40 42 45 42 40 40 40 43 47 44 43 42 40 39 39 39 39

ECMWFFLT1_sfc_temp_045.txt.gz
Temp
61 59 59 60 59 60 60 60 60 59 60 60 60 59 60 61 60 60 59 60 61 61 62 61 61 61 61 61 62 61 60 61 60 59 57 56 58 57 58 57 58 58 57 54 58 57 56 54 56 58 59 59 59 58 59 59 58 58 56 55 56 55 53
61 61 60 60 60 59 59 58 59 59 59 59 59 59 59 60 61 60 59 60 60 61 62 61 59 61 61 61 60 60 60 59 60 59 59 58 57 57 57 56 57 56 56 56 57 56 54 55 54 55 56 59 59 57 57 57 57 57 56 55 56 54 54
60 60 59 58 58 58 58 57 58 58 58 59 58 58 58 59 59 59 59 60 60 61 62 61 60 60 61 61 61 61 60 59 58 59 59 59 58 57 57 57 55 54 56 56 54 54 57 54 55 55 55 55 54 53 56 56 56 55 55 55 53 53 51
59 60 58 57 56 57 58 56 57 57 57 57 58 57 58 59 58 59 58 59 59 61 61 60 60 61 61 61 61 60 60 59 58 58 58 58 58 58 56 57 58 59 56 54 55 55 54 54 54 54 54 55 54 53 54 56 56 55 55 53 52 51 50
60 60 59 57 57 58 57 57 56 57 56 57 57 57 58 59 58 57 58 59 60 58 58 60 60 60 61 60 60 60 60 59 59 59 58 57 57 57 56 56 57 56 56 57 57 57 57 56 57 54 53 53 54 53 56 54 56 54 53 53 53 51 50
61 61 59 58 57 58 57 57 57 56 57 58 57 58 57 57 58 58 58 59 58 58 58 58 58 58 59 59 59 59 59 59 58 58 57 58 58 58 57 56 57 57 56 57 58 56 56 57 58 55 52 53 49 51 54 54 52 54 53 54 53 52 52
61 61 60 59 57 58 58 58 58 58 58 58 57 58 57 58 58 58 58 57 58 57 58 57 57 57 58 59 59 58 59 58 58 58 58 57 56 56 56 56 56 56 56 58 57 58 58 58 55 56 53 51 53 53 53 51 54 52 54 54 53 52 53
62 61 60 60 58 58 57 58 57 57 58 57 57 57 56 57 56 56 57 56 57 57 57 57 59 57 57 57 57 56 56 57 58 57 56 57 57 56 55 57 56 56 57 57 57 58 60 60 58 56 56 52 49 50 50 50 48 48 50 52 52 53 51
62 61 60 60 59 59 58 59 58 57 58 57 56 56 56 57 56 56 56 55 55 56 57 56 56 56 56 57 55 55 56 57 56 56 57 57 57 56 57 55 56 56 58 57 58 58 57 58 58 56 57 57 53 49 48 50 47 48 52 52 54 53 53
61 61 60 59 60 59 59 58 58 57 56 57 58 56 56 55 55 55 55 55 56 56 56 56 56 55 55 56 55 54 54 53 55 55 55 56 55 56 56 56 57 55 57 57 58 57 57 56 57 56 59 58 56 52 45 46 47 45 52 49 52 54 54
62 60 59 58 57 58 57 58 57 57 56 56 57 57 55 55 56 57 54 54 54 55 55 55 55 54 55 54 53 53 53 53 54 53 53 55 54 55 55 55 55 55 55 58 57 57 57 57 57 57 55 54 58 56 48 48 48 45 49 50 48 53 52
59 59 58 58 58 58 58 57 58 57 56 56 57 55 54 54 53 53 53 53 54 54 54 54 54 54 55 54 53 54 54 54 54 53 53 55 54 56 55 55 54 55 55 57 57 58 57 57 56 55 54 55 54 54 55 51 47 49 49 53 51 50 54
58 58 58 58 58 58 58 58 58 56 56 56 54 54 54 54 53 52 52 52 53 53 54 54 54 53 53 53 53 55 53 54 55 54 54 55 57 55 54 54 55 56 54 56 57 58 56 56 56 55 56 55 51 51 51 52 51 53 49 49 50 52 54
58 57 57 57 58 57 58 58 58 58 56 55 54 54 54 52 52 52 52 54 53 53 53 53 53 52 53 52 52 52 52 54 54 53 53 53 54 54 55 55 53 54 54 57 56 57 57 56 55 55 55 54 53 51 54 49 50 49 52 46 47 53 52
57 58 58 58 58 58 58 58 58 58 58 55 54 55 54 53 52 53 52 52 53 52 53 52 52 52 52 52 53 53 53 52 52 52 52 52 52 54 54 55 53 53 54 56 54 57 57 55 56 55 53 55 54 52 52 48 47 48 52 52 53 52 52
59 58 58 59 60 59 58 58 58 59 56 54 54 55 54 53 53 52 52 51 52 52 52 51 51 51 51 52 52 52 51 51 51 52 52 51 52 51 54 53 52 51 53 52 52 52 52 55 56 57 55 55 55 53 53 50 48 49 50 50 49 51 51
58 58 58 58 59 59 59 59 59 58 57 55 55 54 53 53 53 52 53 51 52 52 52 52 51 51 51 51 51 51 50 50 51 51 51 51 52 52 52 52 52 51 52 52 51 51 52 52 54 56 55 54 55 54 53 51 53 46 47 53 49 54 52
57 57 57 57 58 59 59 59 58 59 57 56 55 53 54 53 52 52 55 52 52 52 51 51 51 51 51 51 51 50 51 50 50 50 51 51 55 50 52 53 51 50 51 52 50 51 51 51 53 52 54 53 54 54 53 53 50 48 52 53 51 50 49
57 57 57 58 58 58 60 59 59 58 57 57 55 56 55 54 54 53 53 51 51 51 51 50 51 51 51 51 51 50 51 51 51 51 51 52 51 50 51 51 50 50 52 53 51 49 50 51 52 52 52 53 53 52 52 50 50 52 54 54 52 51 50
57 56 57 57 58 58 58 59 59 59 57 57 56 55 55 54 54 54 54 53 53 52 52 51 51 51 51 50 51 51 52 52 52 51 51 52 51 51 50 51 50 49 51 51 52 51 51 50 53 52 53 53 52 52 52 52 51 52 52 52 48 49 48
57 57 57 57 57 57 57 57 58 59 57 56 56 56 56 55 54 54 54 55 54 53 53 52 51 51 51 51 51 51 51 51 52 52 52 51 51 50 50 50 50 50 50 50 51 50 52 53 50 51 49 51 51 52 51 49 49 51 50 49 50 50 45
56 56 57 57 57 56 56 56 56 56 56 55 57 57 57 57 56 56 56 56 56 55 55 55 55 53 52 51 50 51 50 52 51 52 52 52 52 51 51 51 50 48 51 56 55 54 54 55 54 53 48 49 49 51 49 48 50 48 48 50 49 45 46
57 56 56 55 55 56 56 57 56 55 55 54 54 54 55 53 54 54 55 54 54 55 55 55 57 54 54 55 52 54 52 51 51 51 52 52 52 51 51 50 51 60 58 55 52 49 49 51 55 56 53 50 51 51 50 49 48 48 49 48 49 47 47
56 56 55 55 55 55 55 55 56 55 54 54 54 54 53 51 52 52 53 52 53 55 55 57 53 48 48 51 55 53 53 51 50 51 52 52 53 51 51 51 50 56 55 56 50 47 47 47 48 50 50 52 54 55 51 49 48 47 49 51 46 45 47
55 55 55 55 55 54 54 54 54 54 54 54 54 54 54 52 52 51 51 52 52 54 54 55 50 48 46 46 51 56 54 54 52 51 52 52 53 51 51 51 50 51 50 49 49 49 48 47 46 46 45 46 47 50 51 54 50 47 47 49 45 47 46
53 53 54 54 54 54 54 54 54 54 53 52 52 53 52 52 51 51 52 51 51 52 53 52 48 48 46 45 45 50 54 54 54 53 53 53 52 52 51 50 52 52 51 56 54 49 49 49 47 47 46 46 45 45 44 46 48 56 51 52 51 47 48
51 51 51 51 51 52 52 52 51 51 52 52 52 52 52 52 52 51 51 51 50 49 51 50 47 46 46 45 44 45 53 53 54 54 54 54 54 53 53 53 53 53 51 52 51 49 49 48 47 46 46 47 47 47 44 43 43 47 50 54 52 51 49
48 49 49 50 50 50 49 48 49 49 50 50 50 50 50 50 51 51 51 50 50 52 53 48 45 44 44 43 43 44 51 53 53 53 54 53 53 54 54 54 54 55 54 52 52 51 50 50 48 49 47 47 46 47 47 47 47 47 49 50 53 53 51
47 47 47 47 47 47 47 47 46 47 47 47 48 47 47 48 49 50 50 50 51 52 53 46 42 41 44 43 42 46 50 53 53 54 54 53 53 53 54 54 54 53 53 53 51 46 49 51 50 49 48 46 44 44 44 42 41 40 44 48 49 48 49
46 46 46 46 46 45 45 46 46 46 46 46 45 45 46 46 48 48 49 49 50 51 52 49 43 41 41 41 42 48 49 52 52 52 53 53 54 54 53 54 53 54 53 53 50 43 43 47 49 49 49 47 46 44 44 42 41 41 43 44 44 44 44
46 46 46 45 45 45 45 45 45 45 44 45 45 45 45 45 46 47 48 49 50 50 51 50 46 44 41 40 43 51 51 52 50 49 50 51 51 52 53 54 56 55 54 54 47 43 42 47 50 51 50 48 46 45 43 41 42 42 41 41 41 41 41
45 44 44 43 43 43 43 44 44 44 44 43 43 43 45 44 45 46 46 47 51 50 49 49 46 44 43 41 43 50 51 51 50 50 50 50 49 50 52 54 53 53 54 52 46 42 41 45 50 52 50 49 47 46 46 41 43 43 43 43 43 44 42
44 43 42 41 41 42 43 42 43 43 43 43 43 43 43 44 43 44 44 45 45 46 47 48 48 44 43 43 41 46 50 50 51 50 49 50 49 48 50 50 51 46 44 43 43 41 41 41 48 50 51 50 48 48 43 42 43 43 43 43 44 45 44
44 44 43 43 43 43 43 43 43 43 43 43 42 42 42 42 42 42 42 43 43 45 46 47 47 43 43 42 42 41 48 50 51 51 50 49 49 49 49 50 50 49 46 45 42 41 41 40 43 50 50 50 50 47 42 44 44 44 45 44 44 42 41
44 44 44 44 44 44 44 44 44 42 41 41 41 41 41 42 41 41 42 42 43 43 45 48 45 45 43 43 41 41 45 49 50 51 50 50 49 49 49 50 50 49 46 45 43 42 41 41 40 47 49 46 41 39 45 45 44 44 44 43 42 41 40
42 44 44 44 44 43 44 44 43 43 42 41 41 40 40 40 39 40 41 42 43 43 44 44 44 44 43 42 42 41 40 42 42 47 49 50 50 50 49 49 49 47 44 44 43 42 41 40 40 44 44 42 39 40 42 44 43 43 42 42 41 39 38
41 41 41 41 41 40 40 40 40 40 39 39 38 38 38 38 39 39 39 40 41 42 43 43 44 43 43 42 41 40 40 40 39 44 48 49 50 49 48 47 48 45 44 43 43 42 41 40 43 42 41 40 39 41 44 42 43 42 40 40 39 39 39

ECMWFFLT1_sfc_temp_048.txt.gz
Temp
61 60 59 59 59 60 60 60 60 61 61 61 61 61 61 62 61 60 61 61 62 61 63 62 62 62 62 62 63 62 61 62 61 60 59 58 60 59 58 57 58 59 59 58 62 60 58 55 55 58 59 59 58 59 60 59 58 57 56 57 58 57 56
61 60 59 60 60 60 59 58 60 59 59 59 60 60 60 61 62 61 60 61 61 61 63 61 61 62 62 62 61 61 60 60 61 61 60 59 59 59 58 57 58 58 58 59 59 60 59 56 55 55 55 58 58 58 58 58 58 57 57 57 58 58 57
60 58 59 58 58 59 58 57 58 58 57 57 57 58 59 60 61 61 60 61 61 61 63 62 61 61 61 61 62 61 60 60 60 61 60 60 60 59 59 59 57 56 58 58 57 58 60 60 56 55 56 56 55 56 57 56 57 57 57 56 55 56 55
59 59 58 57 57 57 58 57 57 56 56 56 57 57 58 59 59 60 60 60 61 62 63 61 61 62 61 61 61 61 61 60 60 59 60 60 60 59 58 59 59 61 59 57 57 59 59 57 57 56 57 58 57 55 56 57 57 57 57 56 56 55 55
60 60 59 57 58 58 57 57 55 57 56 56 57 57 58 58 59 59 60 60 60 60 61 61 61 61 61 61 61 61 60 60 60 60 59 59 58 59 59 59 60 60 57 60 60 60 60 59 59 56 55 57 57 56 57 56 57 58 57 57 57 56 55
60 60 59 58 57 58 57 56 57 57 55 58 57 58 58 57 58 57 58 59 59 60 60 59 60 60 61 61 61 60 60 60 60 59 59 59 59 59 59 59 59 59 58 59 60 60 61 61 60 56 56 57 54 54 57 56 57 58 58 58 58 57 57
60 60 59 58 57 58 58 58 58 58 57 58 57 59 58 57 58 58 59 58 58 58 59 58 59 59 60 61 60 60 60 60 59 59 59 59 58 59 59 59 59 59 58 59 60 61 61 60 59 57 55 54 55 56 55 57 57 58 59 58 58 58 57
60 59 59 59 58 57 57 58 57 57 58 58 58 58 57 57 56 57 58 57 58 58 58 59 59 59 59 60 59 59 59 58 59 59 59 58 58 58 58 59 59 58 59 59 60 62 64 62 61 59 57 54 53 55 55 55 55 54 56 57 57 58 57
60 59 58 59 58 59 58 58 57 57 58 57 57 57 57 57 56 57 58 56 57 57 57 57 58 58 58 58 57 58 58 58 59 58 58 57 58 58 59 58 59 59 59 59 61 62 63 63 62 60 60 59 55 51 52 54 54 55 56 58 58 58 58
59 59 59 58 58 58 58 57 58 57 57 57 58 57 56 55 55 55 56 56 56 57 57 56 56 57 57 58 57 56 57 57 58 58 57 58 58 58 58 58 59 58 58 59 60 60 60 61 61 62 63 61 59 55 51 51 52 52 57 55 58 59 59
61 60 59 58 58 58 57 57 57 57 57 57 58 58 55 55 57 58 55 55 55 56 56 56 56 56 56 55 55 55 55 55 57 56 56 57 56 58 58 58 58 58 58 59 59 59 60 60 60 61 60 60 61 58 54 53 53 51 55 54 54 59 56
59 59 58 58 58 58 57 57 57 57 56 57 58 56 55 55 54 53 54 54 55 55 55 55 55 55 56 55 55 55 54 55 56 55 55 56 56 58 58 57 57 58 58 59 59 59 59 59 59 59 58 58 59 59 57 55 54 54 55 57 56 56 59
58 58 58 58 58 58 58 58 57 56 57 57 55 55 55 54 54 53 53 54 54 54 55 54 54 54 54 54 54 55 54 55 55 55 55 56 57 57 57 57 57 58 58 59 59 59 59 58 58 59 58 57 55 55 57 56 56 57 54 56 56 57 57
57 57 57 57 58 57 57 57 57 57 56 56 55 55 55 54 53 53 54 55 54 55 55 54 54 54 55 54 53 54 54 55 55 54 55 55 55 56 57 57 57 57 58 59 59 58 59 59 58 57 57 57 55 56 57 52 53 54 56 52 53 57 56
57 58 57 57 57 57 57 57 57 57 57 55 55 55 54 54 53 53 54 53 53 53 54 54 53 54 55 54 54 55 54 54 54 54 54 55 55 55 56 57 57 56 57 60 59 60 59 58 59 59 58 58 57 56 55 54 52 53 56 55 56 55 56
57 57 57 57 57 57 57 57 58 58 56 55 54 55 54 53 53 53 53 52 53 53 53 53 52 53 53 54 55 53 53 53 54 55 55 54 55 54 56 56 56 56 56 57 57 59 58 59 60 61 58 58 58 56 57 56 54 53 55 56 55 57 56
57 57 56 56 57 57 57 57 58 57 56 55 55 54 53 53 53 53 53 53 53 53 52 52 52 52 53 53 55 54 53 53 53 53 54 54 54 55 55 56 55 55 56 56 56 56 56 57 58 59 58 57 57 56 56 54 57 53 54 57 54 60 57
57 56 56 56 56 57 57 57 57 57 56 55 54 54 54 53 53 54 55 54 53 53 52 52 53 53 52 52 53 54 53 53 53 53 53 53 55 54 55 57 55 55 55 56 54 55 56 56 58 58 58 57 57 56 56 56 56 55 56 57 56 54 54
57 57 57 57 57 57 57 57 56 56 56 55 54 54 54 54 55 54 54 53 53 53 52 52 53 53 53 52 52 52 53 53 53 53 53 53 54 53 55 54 54 54 56 57 55 54 54 56 56 57 57 57 57 56 56 55 55 56 58 57 56 54 54
56 57 56 56 57 57 57 57 58 57 56 55 55 55 53 54 54 53 53 52 53 53 53 52 52 52 52 52 53 53 53 52 53 53 53 53 53 53 53 54 53 54 55 55 55 55 54 53 55 55 56 55 56 56 55 56 56 56 56 55 54 55 54
57 57 58 58 57 57 57 57 56 57 57 56 56 55 54 54 54 54 53 53 53 53 53 52 51 52 52 52 53 53 53 53 54 54 54 54 53 53 52 53 53 53 55 55 56 55 55 55 54 54 53 55 55 55 55 54 54 55 55 54 55 54 52
56 56 57 57 56 56 56 55 56 55 55 55 55 55 55 55 55 54 54 54 54 54 53 53 53 53 53 53 53 54 53 54 54 55 55 55 54 53 53 53 52 51 54 57 54 54 55 55 56 55 52 54 54 55 54 54 54 54 53 54 53 51 52
56 56 56 56 56 56 56 56 55 55 55 54 54 53 53 53 54 54 55 54 54 54 54 54 56 53 53 55 53 54 53 54 54 55 56 54 55 54 53 52 53 58 56 54 52 49 48 50 54 57 56 54 55 55 54 54 53 54 54 53 54 52 52
55 55 54 55 55 56 56 56 55 55 54 54 53 54 53 53 51 51 53 54 54 54 54 56 51 47 47 50 54 53 54 53 53 53 54 55 56 55 53 53 51 56 57 55 53 47 46 46 47 49 50 51 55 58 55 54 54 53 54 55 53 52 54
53 53 54 54 54 54 54 54 54 54 53 53 53 53 53 52 53 53 52 52 51 53 54 52 48 46 46 45 50 54 54 55 54 54 54 54 55 54 54 53 52 53 54 53 53 52 49 46 45 46 46 46 46 49 51 57 55 52 53 54 52 54 54
50 50 50 50 50 51 51 50 51 51 51 51 52 52 51 52 52 52 53 52 52 52 52 47 44 46 45 45 44 49 55 54 55 54 54 54 54 54 53 53 54 53 53 57 56 53 53 53 47 46 45 45 45 45 45 47 50 59 56 56 55 53 53
49 49 49 49 48 49 49 48 48 48 49 49 49 49 50 50 50 51 51 51 52 52 53 46 41 41 42 43 44 45 53 54 54 55 54 54 54 54 54 55 56 56 54 54 55 53 53 52 52 51 51 51 52 51 46 44 43 45 52 58 57 56 55
48 48 47 47 47 46 47 47 47 47 46 46 46 46 47 47 49 49 50 50 51 52 52 42 41 41 41 41 43 44 50 52 54 54 54 53 54 54 54 55 55 57 56 55 55 54 54 54 52 52 52 52 52 52 52 52 52 52 53 55 57 59 58
47 47 46 46 45 45 45 45 45 45 45 45 45 45 46 47 46 47 48 49 49 49 50 42 41 41 41 39 40 48 49 51 53 54 54 53 53 54 55 54 54 55 55 55 52 46 49 54 53 53 53 53 51 50 49 44 42 41 46 49 52 54 53
45 45 45 45 44 44 43 44 44 45 44 44 44 45 44 45 45 46 47 47 47 47 48 44 40 40 41 40 44 48 49 50 51 52 53 54 54 55 55 55 55 55 54 55 50 46 43 49 53 53 54 53 52 51 50 47 41 39 40 42 43 45 45
44 44 44 43 43 43 44 44 44 44 44 44 42 44 45 44 44 45 45 45 47 45 46 46 42 40 40 40 44 49 50 51 51 51 52 53 53 53 53 53 55 55 55 55 48 44 41 48 53 53 53 53 52 51 51 47 46 44 41 40 39 39 40
43 43 42 42 42 42 42 43 43 43 43 43 43 43 44 43 43 44 44 44 48 45 45 45 42 40 40 39 43 48 49 51 51 51 51 52 52 51 54 54 53 53 54 53 46 43 40 47 53 52 52 53 52 52 53 48 47 46 46 47 46 46 44
43 42 42 42 42 42 43 43 42 42 42 42 42 42 42 42 42 42 42 43 43 44 44 44 44 40 41 40 39 45 48 49 50 51 52 52 52 51 49 51 51 46 43 44 43 42 40 42 52 52 53 53 53 53 53 47 47 47 47 47 47 47 46
42 42 42 42 43 42 42 41 41 41 41 41 41 41 41 41 41 41 41 42 42 43 45 44 44 41 41 40 40 41 46 47 48 49 50 51 51 52 51 51 52 49 44 43 42 41 41 40 43 52 53 54 55 55 45 48 45 44 48 47 46 44 44
42 42 42 42 41 41 41 42 41 40 40 40 40 39 39 40 40 40 41 42 43 42 44 45 44 42 40 40 40 39 43 44 44 45 46 48 50 51 52 52 52 49 45 44 42 41 40 40 39 48 51 47 47 43 50 50 48 47 48 46 45 43 43
40 41 41 41 40 40 41 41 41 41 39 39 39 39 39 39 39 39 40 41 41 42 42 44 42 42 41 40 39 39 38 41 38 43 45 46 47 49 51 50 50 46 43 43 42 42 41 40 40 44 43 42 42 40 45 48 47 46 45 45 43 42 41
39 39 39 39 40 39 39 40 40 39 39 39 38 39 39 39 39 39 39 40 41 42 42 42 41 41 41 39 39 39 38 37 38 42 44 45 46 47 48 49 48 42 41 40 40 41 41 40 43 40 39 40 40 40 46 44 44 44 42 41 41 41 41

ECMWFFLT1_sfc_temp_051.txt.gz
Temp
71 70 70 71 71 70 69 68 68 68 70 71 70 71 72 72 71 70 70 71 71 72 70 69 69 70 71 72 71 72 72 72 70 70 67 66 65 65 66 67 68 70 72 71 72 68 66 58 57 60 62 61 62 63 66 66 66 65 65 66 69 68 67
72 71 72 72 71 70 67 67 68 68 68 69 70 70 72 74 72 71 71 71 71 72 73 73 71 70 70 70 69 69 70 71 71 71 70 68 70 65 63 66 69 70 70 71 71 72 67 63 57 58 57 60 61 63 63 66 68 67 67 68 70 70 68
71 70 71 71 71 70 67 67 67 67 68 68 68 70 70 73 73 72 72 71 71 71 72 73 72 71 70 70 69 69 70 70 71 70 70 71 71 67 68 67 67 67 68 68 68 69 69 68 61 59 58 58 58 61 65 65 66 67 68 67 68 70 69
69 69 69 69 70 70 68 67 69 70 71 71 71 70 70 71 72 73 72 72 72 72 73 72 71 72 71 71 71 70 70 70 71 70 69 70 71 70 69 70 70 70 68 67 67 69 68 65 63 60 62 66 65 62 64 66 67 69 70 69 69 69 69
69 70 70 68 70 70 69 69 70 70 70 70 70 71 70 72 72 72 71 71 71 71 71 72 72 72 72 71 70 70 70 70 70 70 70 69 68 70 69 71 72 72 72 71 71 71 70 69 67 63 63 67 69 69 67 65 69 69 70 71 71 70 70
70 71 71 70 71 71 71 70 70 70 70 70 71 71 70 69 71 70 70 71 71 72 72 72 72 72 72 71 70 69 70 69 69 69 69 69 69 69 70 71 72 72 72 73 73 72 71 71 69 65 68 70 65 65 68 69 67 70 71 70 72 72 72
68 69 71 70 70 71 72 71 71 71 71 72 72 72 72 71 71 71 71 71 72 72 71 71 72 71 72 72 71 70 70 70 70 69 70 69 69 69 71 70 71 72 72 72 72 72 71 70 69 68 66 67 67 67 69 69 70 69 69 71 72 72 72
68 69 71 71 70 70 71 72 72 72 73 73 74 73 71 71 70 70 70 70 70 70 71 71 71 71 71 72 73 71 70 71 70 69 69 69 69 69 69 71 70 70 67 71 73 73 74 72 71 69 66 62 63 66 65 69 69 69 69 70 72 72 72
68 69 69 70 71 71 70 72 71 71 73 72 72 72 70 71 70 70 70 70 71 71 71 71 71 72 70 71 71 71 71 71 70 68 69 69 69 69 69 70 71 71 69 69 73 73 75 74 73 71 69 67 64 61 64 64 67 67 70 69 70 72 72
67 68 68 68 69 70 70 71 71 70 70 71 70 70 70 69 69 70 71 70 70 71 71 71 71 71 71 71 71 70 71 71 71 71 70 70 70 70 70 69 71 71 71 71 73 73 73 73 74 72 73 70 70 66 62 62 63 65 67 71 69 70 73
67 68 68 68 69 69 69 70 70 69 70 70 70 69 70 69 69 69 70 70 70 70 71 71 72 71 71 71 70 71 71 70 70 70 70 70 69 71 70 70 71 71 71 71 72 72 72 72 72 72 73 74 74 70 67 65 63 67 67 69 72 70 71
67 67 68 68 69 69 69 69 70 70 69 69 70 69 69 70 70 69 70 70 70 69 70 70 70 71 71 71 70 70 68 70 71 70 69 69 69 70 70 69 68 65 68 70 71 71 71 71 72 73 73 72 72 72 70 69 64 66 70 66 69 74 72
67 67 67 68 69 70 70 70 69 68 69 70 70 70 71 71 70 70 70 70 69 70 70 69 70 70 70 70 70 71 69 69 71 70 70 70 70 69 70 70 70 69 69 71 70 70 70 71 72 73 72 71 71 71 72 71 68 65 68 70 70 71 73
65 66 67 68 69 69 69 70 70 70 70 69 69 70 70 71 71 71 71 71 71 70 69 69 70 70 71 69 69 69 69 70 71 70 69 67 69 69 70 70 70 70 71 71 71 70 71 71 71 71 72 72 71 71 71 70 69 66 66 68 70 71 72
66 67 67 67 68 68 68 69 68 69 68 68 70 71 71 70 70 71 71 71 70 71 70 70 70 71 71 70 68 68 69 70 70 69 68 69 69 68 69 70 70 70 71 72 70 73 72 72 72 72 72 72 72 71 72 73 71 68 65 66 68 72 70
65 65 66 67 67 67 67 67 68 68 68 68 69 71 70 70 70 71 71 70 70 70 71 71 70 70 70 71 71 69 68 70 69 69 68 68 70 70 69 69 69 69 69 70 70 72 72 72 74 74 73 73 73 72 73 74 71 69 68 67 69 69 69
64 65 65 65 65 65 66 66 68 68 69 70 69 68 70 71 70 70 70 70 71 71 70 70 70 71 71 71 71 71 70 70 70 70 70 70 70 70 70 69 69 69 69 69 70 70 71 72 72 74 72 72 71 71 71 70 73 72 70 68 67 72 71
64 64 64 64 64 65 65 66 67 68 68 69 69 69 69 70 70 71 70 71 71 71 71 71 71 70 69 70 70 70 71 71 70 71 70 69 67 70 69 70 69 70 69 69 68 70 71 70 73 73 73 73 73 71 70 70 72 73 70 69 67 70 71
63 64 64 64 65 65 66 66 66 65 67 67 67 69 69 70 71 72 72 72 72 72 72 71 72 71 71 70 70 69 70 70 71 71 70 70 70 70 70 70 69 70 70 69 69 70 70 70 71 71 72 73 74 71 69 69 70 71 72 72 70 66 68
62 62 63 64 65 66 66 66 67 66 67 67 67 67 68 70 69 71 71 71 71 71 71 71 71 70 71 71 71 70 70 70 70 69 69 70 69 69 70 70 69 69 70 71 70 69 69 69 69 70 71 70 72 70 68 69 71 70 70 70 70 70 68
62 62 62 63 64 65 66 65 66 67 68 67 67 68 68 68 68 69 70 71 70 70 70 70 71 71 71 70 70 70 70 70 71 70 69 69 68 69 68 69 69 70 71 71 71 71 70 70 70 70 69 69 69 68 68 68 68 70 69 69 69 68 69
61 60 60 61 62 63 64 64 64 63 64 64 65 66 66 67 68 69 69 68 69 68 69 69 71 70 71 69 70 70 69 71 70 71 70 70 69 69 69 69 69 70 67 63 58 61 63 63 70 69 67 68 68 67 68 68 68 68 69 69 68 69 68
60 59 59 59 59 60 60 59 59 60 61 61 61 61 61 62 65 67 69 69 68 66 66 66 57 50 53 68 70 71 69 69 70 71 71 70 70 69 69 69 67 60 56 55 53 49 48 51 56 66 70 68 67 68 68 67 68 69 68 67 68 67 66
60 58 58 58 58 59 61 62 61 59 58 59 59 59 58 59 61 63 66 67 66 65 63 57 43 46 46 45 62 68 69 69 69 70 70 70 70 70 69 69 69 63 61 59 59 45 47 46 47 48 52 56 61 70 69 67 68 68 68 68 69 68 67
57 57 57 58 59 59 59 58 58 58 59 58 58 59 58 59 60 62 63 64 62 60 55 43 40 41 44 44 51 65 67 69 68 69 70 70 71 70 70 69 68 67 68 69 70 66 56 46 45 45 45 46 47 48 52 66 69 67 66 68 67 67 67
55 55 56 55 56 57 57 56 55 55 55 56 56 57 58 58 59 60 62 62 60 57 52 41 41 40 39 42 42 53 69 67 68 69 69 69 70 70 70 69 68 67 67 59 64 70 70 66 48 43 45 44 44 44 45 44 47 64 71 67 68 67 67
53 53 54 55 55 56 55 54 54 55 56 57 56 56 57 57 58 59 60 60 59 56 52 42 40 40 40 39 39 47 66 65 66 67 67 67 67 68 68 69 69 68 68 67 68 68 68 68 67 63 62 63 65 57 44 43 43 40 50 67 69 68 70
50 50 51 53 54 53 53 53 53 54 55 55 55 55 56 56 57 58 59 60 59 55 50 40 39 39 40 40 40 48 64 62 65 66 66 66 66 66 67 66 67 68 69 68 67 64 66 66 66 66 66 66 67 67 66 65 64 65 65 65 68 70 71
50 49 49 49 49 51 51 51 51 53 54 54 54 54 54 55 55 56 57 58 58 56 52 40 40 39 39 40 43 61 63 64 64 65 65 65 66 66 66 66 66 66 67 67 58 47 54 66 66 66 65 67 67 66 66 56 47 49 58 64 66 65 65
50 50 50 49 49 50 51 51 50 52 53 52 51 51 52 53 55 55 56 56 56 56 54 44 39 40 40 39 49 62 62 65 65 64 65 64 65 65 65 66 67 67 67 68 55 43 44 50 66 66 66 66 66 66 67 59 42 38 38 38 40 42 42
49 50 51 50 49 49 50 51 51 50 49 49 49 48 49 53 54 54 54 53 54 55 54 45 40 40 40 38 46 60 62 63 63 63 64 65 66 65 64 56 60 66 66 68 52 44 40 52 65 66 66 65 65 65 65 63 58 55 39 40 39 40 42
52 51 51 51 51 51 50 50 51 51 51 51 51 52 50 53 53 53 52 51 49 52 54 49 41 40 40 39 48 59 61 63 62 61 62 63 63 65 65 60 52 56 60 57 44 44 39 50 64 65 64 64 63 64 66 65 60 59 59 59 58 56 52
51 51 50 50 50 51 52 52 52 52 52 53 51 52 53 54 53 52 53 53 51 52 53 53 46 39 40 40 39 54 59 59 57 57 59 60 61 63 63 64 61 47 42 42 41 41 40 40 58 64 64 64 63 63 67 66 63 64 63 62 62 60 60
50 50 50 50 50 50 51 51 51 51 51 52 52 52 51 52 52 52 52 52 52 51 51 51 49 39 40 39 39 44 56 53 53 54 56 58 60 60 62 63 63 53 44 43 42 41 40 39 42 58 62 64 65 62 59 66 60 49 62 61 60 58 59
49 49 50 51 50 50 50 51 50 50 51 51 50 50 50 51 51 51 52 51 51 51 50 46 50 42 39 39 38 38 49 49 46 50 53 56 58 59 59 59 59 51 43 41 40 40 40 40 38 51 57 49 46 44 60 63 63 60 61 61 60 59 58
48 49 49 50 50 49 50 50 49 50 49 50 49 49 49 49 50 50 51 52 52 51 51 51 42 47 40 39 38 37 36 42 37 47 51 52 53 55 57 55 54 45 40 40 40 39 40 40 40 47 43 42 42 40 45 59 61 59 59 59 58 58 57
47 48 49 49 49 49 48 49 49 49 49 49 50 49 50 49 50 49 49 50 51 51 51 51 46 41 44 39 39 39 38 37 38 46 47 49 52 53 53 53 48 40 39 39 39 39 39 39 45 41 40 40 40 41 50 55 55 56 56 54 53 53 53